KC5DAQ-22 Weather Reports


time (UTC)temp
F
wind
direction
speed
knots
gust
knots
rain 1hr
in
rain 24hr
in
rain mn
in
humidity
%
barometer
mb
20260509022500 72 58 3.5 6.1 0.00 0.05 0.05 97 1007.7
20260509022358 72 78 3.5 6.1 0.00 0.05 0.05 97 1007.7
20260509022258 72 68 4.3 6.1 0.00 0.05 0.05 97 1007.7
20260509022200 72 73 4.3 6.1 0.00 0.05 0.05 97 1007.6
20260509022059 72 92 3.5 6.1 0.00 0.05 0.05 97 1007.7
20260509021959 72 66 4.3 6.1 0.00 0.05 0.05 97 1007.6
20260509021858 72 78 4.3 6.1 0.00 0.05 0.05 97 1007.6
20260509021800 72 96 4.3 6.1 0.00 0.05 0.05 97 1007.6
20260509021658 72 85 3.5 6.1 0.00 0.05 0.05 97 1007.6
20260509021559 72 86 3.5 6.1 0.00 0.05 0.05 97 1007.6
20260509021500 72 80 2.6 5.2 0.00 0.05 0.05 97 1007.7
20260509021358 72 65 2.6 5.2 0.00 0.05 0.05 97 1007.7
20260509021259 72 73 2.6 5.2 0.00 0.05 0.05 97 1007.6
20260509021200 72 71 2.6 6.1 0.00 0.05 0.05 97 1007.7
20260509021059 72 90 3.5 6.1 0.00 0.05 0.05 97 1007.6
20260509020958 72 65 3.5 6.1 0.00 0.05 0.05 97 1007.7
20260509020858 72 75 3.5 6.1 0.00 0.05 0.05 97 1007.7
20260509020759 72 80 3.5 6.1 0.00 0.05 0.05 97 1007.6
20260509020658 72 35 3.5 6.1 0.00 0.05 0.05 97 1007.6
20260509020559 72 80 3.5 6.1 0.00 0.05 0.05 97 1007.7
20260509020459 72 54 3.5 6.1 0.00 0.05 0.05 97 1007.7
20260509020357 72 63 4.3 6.1 0.00 0.05 0.05 97 1007.7
20260509020258 72 54 3.5 6.1 0.00 0.05 0.05 97 1007.6
20260509020158 72 65 3.5 5.2 0.00 0.05 0.05 97 1007.7
20260509020059 72 42 3.5 5.2 0.00 0.05 0.05 97 1007.7
20260509015957 72 54 4.3 5.2 0.00 0.05 0.05 97 1007.6
20260509015857 72 69 4.3 5.2 0.00 0.05 0.05 97 1007.6
20260509015759 72 59 3.5 5.2 0.00 0.05 0.05 97 1007.5
20260509015659 72 49 3.5 5.2 0.00 0.05 0.05 97 1007.6
20260509015558 72 75 3.5 5.2 0.00 0.05 0.05 97 1007.6
20260509015457 72 56 3.5 5.2 0.00 0.05 0.05 97 1007.6
20260509015400 72 63 2.6 5.2 0.00 0.05 0.05 96 1007.6
20260509015257 72 51 2.6 4.3 0.00 0.05 0.05 97 1007.6
20260509015158 72 49 2.6 4.3 0.00 0.05 0.05 97 1007.6
20260509015058 72 63 1.7 3.5 0.00 0.05 0.05 97 1007.6
20260509014958 72 63 1.7 3.5 0.00 0.05 0.05 97 1007.6
20260509014857 72 63 1.7 3.5 0.00 0.05 0.05 96 1007.6
20260509014757 72 63 1.7 4.3 0.00 0.05 0.05 97 1007.6
20260509014659 72 63 1.7 4.3 0.00 0.05 0.05 96 1007.6
20260509014558 72 63 2.6 4.3 0.00 0.05 0.05 97 1007.7
20260509014459 72 63 1.7 4.3 0.00 0.05 0.05 96 1007.6
20260509014357 72 68 1.7 4.3 0.00 0.05 0.05 96 1007.7
20260509014257 72 68 1.7 4.3 0.00 0.05 0.05 96 1007.7
20260509014158 72 68 2.6 4.3 0.00 0.05 0.05 96 1007.6
20260509014057 72 68 2.6 4.3 0.00 0.05 0.05 96 1007.6
20260509013958 72 82 3.5 4.3 0.00 0.05 0.05 96 1007.7
20260509013857 72 78 3.5 4.3 0.00 0.05 0.05 96 1007.7
20260509013758 72 68 2.6 4.3 0.00 0.05 0.05 96 1007.7
20260509013658 72 39 2.6 5.2 0.00 0.05 0.05 96 1007.6
20260509013557 72 35 2.6 5.2 0.00 0.05 0.05 96 1007.7
20260509013457 72 79 2.6 5.2 0.00 0.05 0.05 96 1007.7
20260509013357 72 79 3.5 5.2 0.00 0.05 0.05 96 1007.7
20260509013259 72 71 1.7 5.2 0.00 0.05 0.05 96 1007.7
20260509013157 72 66 1.7 7.8 0.00 0.05 0.05 96 1007.7
20260509013057 72 66 2.6 7.8 0.00 0.05 0.05 96 1007.6
20260509012958 72 66 2.6 7.8 0.00 0.05 0.05 96 1007.6
20260509012857 72 51 3.5 7.8 0.00 0.05 0.05 96 1007.6
20260509012758 72 63 3.5 7.8 0.00 0.05 0.05 96 1007.6
20260509012657 72 72 3.5 7.8 0.00 0.05 0.05 96 1007.6
20260509012559 72 102 3.5 7.8 0.00 0.05 0.05 96 1007.5
20260509012456 72 86 4.3 7.8 0.00 0.05 0.05 96 1007.6
20260509012357 72 69 4.3 7.8 0.00 0.05 0.05 96 1007.5
20260509012259 72 75 4.3 7.8 0.00 0.05 0.05 96 1007.5
20260509012157 72 93 3.5 4.3 0.00 0.05 0.05 96 1007.5
20260509012058 72 75 3.5 4.3 0.00 0.05 0.05 96 1007.4
20260509011957 72 75 3.5 4.3 0.00 0.05 0.05 96 1007.5
20260509011858 72 75 3.5 4.3 0.00 0.05 0.05 96 1007.5
20260509011756 72 69 3.5 4.3 0.00 0.05 0.05 96 1007.5
20260509011657 72 102 3.5 4.3 0.00 0.05 0.05 96 1007.5
20260509011559 72 72 3.5 4.3 0.00 0.05 0.05 96 1007.5
20260509011458 72 62 3.5 5.2 0.00 0.05 0.05 96 1007.5
20260509011358 72 78 3.5 7.8 0.00 0.05 0.05 96 1007.4
20260509011258 72 82 2.6 7.8 0.00 0.05 0.05 96 1007.4
20260509011157 72 68 1.7 7.8 0.00 0.05 0.05 96 1007.4
20260509011057 72 68 1.7 7.8 0.00 0.05 0.05 96 1007.4
20260509010957 72 66 2.6 7.8 0.00 0.05 0.05 96 1007.3
20260509010857 72 66 2.6 7.8 0.00 0.05 0.05 96 1007.4
20260509010756 72 66 2.6 7.8 0.00 0.05 0.05 96 1007.4
20260509010657 72 65 3.5 7.8 0.00 0.05 0.05 96 1007.4
20260509010558 72 72 5.2 7.8 0.00 0.05 0.05 96 1007.5
20260509010457 72 85 5.2 7.8 0.00 0.05 0.05 96 1007.4
20260509010358 72 55 4.3 6.1 0.00 0.05 0.05 96 1007.4
20260509010256 72 65 4.3 6.1 0.00 0.05 0.05 96 1007.3
20260509010157 72 24 3.5 6.1 0.00 0.05 0.05 96 1007.3
20260509010056 73 56 2.6 6.1 0.00 0.05 0.05 96 1007.3
20260509005956 72 76 2.6 5.2 0.00 0.05 0.05 96 1007.3
20260509005856 72 54 2.6 5.2 0.00 0.05 0.05 96 1007.3
20260509005756 72 48 2.6 5.2 0.00 0.05 0.05 96 1007.3
20260509005657 72 69 3.5 6.1 0.00 0.05 0.05 96 1007.4
20260509005556 72 66 3.5 6.1 0.00 0.05 0.05 96 1007.3
20260509005457 72 80 3.5 6.1 0.00 0.05 0.05 96 1007.4
20260509005357 73 65 3.5 6.1 0.00 0.05 0.05 96 1007.3
20260509005257 73 69 3.5 6.1 0.00 0.05 0.05 96 1007.4
20260509005158 73 73 2.6 6.1 0.00 0.05 0.05 96 1007.3
20260509005056 73 72 2.6 6.1 0.00 0.05 0.05 96 1007.3
20260509004956 73 63 2.6 6.1 0.00 0.05 0.05 96 1007.3
20260509004856 73 76 3.5 6.1 0.00 0.05 0.05 96 1007.2
20260509004756 73 58 3.5 6.1 0.00 0.05 0.05 96 1007.3
20260509004658 73 54 3.5 5.2 0.00 0.05 0.05 96 1007.2
20260509004556 73 44 3.5 5.2 0.00 0.05 0.05 96 1007.2
20260509004458 73 49 4.3 6.1 0.00 0.05 0.05 96 1007.2
20260509004357 73 55 4.3 6.1 0.00 0.05 0.05 96 1007.2
20260509004257 73 55 4.3 6.1 0.00 0.05 0.05 96 1007.1
20260509004157 73 55 4.3 6.1 0.00 0.05 0.05 96 1007.2
20260509004058 73 83 5.2 6.1 0.00 0.05 0.05 96 1007.2
20260509003957 73 44 4.3 6.1 0.00 0.05 0.05 96 1007.1
20260509003857 73 44 4.3 6.1 0.00 0.05 0.05 96 1007.2
20260509003758 73 44 4.3 6.1 0.00 0.05 0.05 96 1007.2
20260509003656 73 44 4.3 6.1 0.00 0.05 0.05 96 1007.2
20260509003557 73 42 4.3 6.1 0.00 0.05 0.05 96 1007.2
20260509003457 73 79 4.3 6.1 0.00 0.05 0.05 96 1007.2
20260509003356 73 51 4.3 6.1 0.00 0.05 0.05 96 1007.3
20260509003259 73 37 3.5 6.1 0.00 0.05 0.05 96 1007.2
20260509003156 73 78 3.5 6.1 0.00 0.05 0.05 96 1007.2
20260509003056 73 72 4.3 6.1 0.00 0.05 0.05 96 1007.3
20260509002956 73 47 3.5 5.2 0.00 0.05 0.05 96 1007.3
20260509002858 73 45 2.6 5.2 0.00 0.05 0.05 96 1007.3
20260509002758 73 45 1.7 3.5 0.00 0.05 0.05 96 1007.4
20260509002657 73 45 2.6 3.5 0.00 0.05 0.05 96 1007.4
20260509002556 73 45 2.6 5.2 0.00 0.05 0.05 96 1007.3
20260509002455 73 42 1.7 5.2 0.00 0.05 0.05 96 1007.4
20260509002357 73 41 1.7 5.2 0.00 0.05 0.05 96 1007.4
20260509002256 73 41 1.7 5.2 0.00 0.05 0.05 96 1007.3
20260509002157 73 25 2.6 5.2 0.00 0.05 0.05 96 1007.3
20260509002055 73 45 2.6 5.2 0.00 0.05 0.05 96 1007.4
20260509001956 73 47 2.6 5.2 0.00 0.05 0.05 96 1007.4
20260509001856 73 55 2.6 5.2 0.00 0.05 0.05 96 1007.4
20260509001756 73 56 3.5 5.2 0.00 0.05 0.05 96 1007.4
20260509001655 73 61 4.3 5.2 0.00 0.05 0.05 96 1007.3
20260509001557 73 66 3.5 5.2 0.00 0.05 0.05 96 1007.4
20260509001457 73 56 3.5 5.2 0.00 0.05 0.05 96 1007.5
20260509001355 73 92 2.6 5.2 0.00 0.05 0.05 96 1007.5
20260509001255 73 65 2.6 5.2 0.00 0.05 0.05 96 1007.5
20260509001156 73 65 3.5 6.1 0.00 0.05 0.05 96 1007.5
20260509001056 73 54 3.5 6.1 0.00 0.05 0.05 96 1007.4
20260509000956 73 58 4.3 6.1 0.00 0.05 0.05 96 1007.6
20260509000856 73 61 4.3 6.1 0.00 0.05 0.05 96 1007.4
20260509000756 73 63 3.5 6.1 0.00 0.05 0.05 96 1007.4
20260509000657 73 58 3.5 6.1 0.00 0.05 0.05 96 1007.4
20260509000555 73 78 3.5 6.1 0.00 0.05 0.05 96 1007.4
20260509000455 73 59 3.5 6.1 0.00 0.05 0.05 96 1007.4
20260509000355 73 49 3.5 6.1 0.00 0.05 0.05 96 1007.4
20260509000256 73 49 4.3 6.1 0.00 0.05 0.05 96 1007.4
20260509000155 73 52 4.3 6.1 0.00 0.05 0.05 96 1007.3
20260509000057 73 83 4.3 5.2 0.00 0.05 0.05 96 1007.4
20260508235958 73 55 3.5 5.2 0.00 0.05 0.05 96 1007.4
20260508235856 73 51 2.6 5.2 0.00 0.05 0.05 96 1007.4
20260508235755 73 49 2.6 5.2 0.00 0.05 0.05 96 1007.4
20260508235655 73 52 3.5 5.2 0.00 0.05 0.05 96 1007.5
20260508235557 73 52 4.3 5.2 0.00 0.05 0.05 96 1007.4
20260508235454 73 66 4.3 5.2 0.00 0.05 0.05 96 1007.4
20260508235356 73 59 3.5 5.2 0.00 0.05 0.05 96 1007.5
20260508235255 73 68 3.5 5.2 0.00 0.05 0.05 96 1007.5
20260508235156 73 56 3.5 5.2 0.00 0.05 0.05 96 1007.5
20260508235057 73 90 2.6 5.2 0.00 0.05 0.05 96 1007.6
20260508234955 73 72 2.6 4.3 0.00 0.05 0.05 96 1007.6
20260508234857 73 55 3.5 4.3 0.00 0.05 0.05 96 1007.6
20260508234756 73 65 3.5 4.3 0.00 0.05 0.05 96 1007.5
20260508234657 73 65 3.5 4.3 0.00 0.05 0.05 96 1007.5
20260508234555 73 65 3.5 4.3 0.00 0.05 0.05 96 1007.5
20260508234455 73 44 3.5 4.3 0.00 0.05 0.05 96 1007.6
20260508234356 73 45 3.5 4.3 0.00 0.05 0.05 96 1007.5
20260508234254 73 51 3.5 3.5 0.00 0.05 0.05 96 1007.5
20260508234156 73 51 3.5 3.5 0.00 0.05 0.05 96 1007.5
20260508234057 73 49 2.6 3.5 0.00 0.05 0.05 96 1007.6
20260508233955 73 49 2.6 3.5 0.00 0.05 0.05 96 1007.6
20260508233856 73 49 2.6 3.5 0.00 0.05 0.05 96 1007.6
20260508233755 73 49 2.6 5.2 0.00 0.05 0.05 96 1007.7
20260508233654 73 49 2.6 5.2 0.00 0.05 0.05 96 1007.7
20260508233555 73 44 2.6 5.2 0.00 0.05 0.05 96 1007.7
20260508233456 73 35 2.6 5.2 0.00 0.05 0.05 96 1007.7
20260508233355 73 35 1.7 5.2 0.00 0.05 0.05 96 1007.7
20260508233255 73 59 3.5 5.2 0.00 0.05 0.05 96 1007.6
20260508233156 73 59 3.5 5.2 0.00 0.05 0.05 96 1007.5
20260508233055 73 59 3.5 5.2 0.01 0.05 0.05 96 1007.6
20260508232955 73 59 3.5 5.2 0.01 0.05 0.05 96 1007.5
20260508232855 73 58 3.5 5.2 0.01 0.05 0.05 96 1007.6
20260508232755 73 48 3.5 5.2 0.01 0.05 0.05 96 1007.6
20260508232654 73 69 3.5 5.2 0.01 0.05 0.05 95 1007.6
20260508232554 73 62 3.5 5.2 0.01 0.05 0.05 95 1007.6
20260508232456 73 58 3.5 5.2 0.01 0.05 0.05 96 1007.6
20260508232355 73 62 2.6 5.2 0.01 0.05 0.05 96 1007.6
20260508232254 73 62 2.6 5.2 0.01 0.05 0.05 96 1007.6
20260508232154 73 62 2.6 5.2 0.01 0.05 0.05 96 1007.7
20260508232056 73 62 2.6 5.2 0.01 0.05 0.05 95 1007.7
20260508231957 73 62 3.5 5.2 0.01 0.05 0.05 95 1007.7
20260508231855 73 49 3.5 5.2 0.01 0.05 0.05 95 1007.7
20260508231755 73 65 3.5 5.2 0.01 0.05 0.05 95 1007.7
20260508231655 73 59 3.5 5.2 0.01 0.05 0.05 95 1007.7
20260508231556 73 68 3.5 5.2 0.01 0.05 0.05 95 1007.7
20260508231454 73 47 3.5 5.2 0.01 0.05 0.05 95 1007.7
20260508231355 73 59 3.5 5.2 0.01 0.05 0.05 96 1007.6
20260508231254 73 65 2.6 3.5 0.01 0.05 0.05 95 1007.7
20260508231154 73 51 2.6 3.5 0.01 0.05 0.05 96 1007.7
20260508231054 73 51 2.6 3.5 0.01 0.05 0.05 96 1007.6
20260508230954 73 51 2.6 3.5 0.01 0.05 0.05 96 1007.5
20260508230855 73 44 2.6 3.5 0.01 0.05 0.05 96 1007.5
20260508230755 73 44 2.6 4.3 0.01 0.05 0.05 96 1007.6
20260508230654 73 42 1.7 4.3 0.01 0.05 0.05 96 1007.6
20260508230555 73 42 1.7 5.2 0.01 0.05 0.05 96 1007.6
20260508230455 73 42 1.7 5.2 0.01 0.05 0.05 96 1007.5
20260508230355 73 42 1.7 5.2 0.01 0.05 0.05 96 1007.5
20260508230255 73 42 1.7 5.2 0.01 0.05 0.05 96 1007.6
20260508230154 73 41 1.7 5.2 0.01 0.05 0.05 96 1007.5
20260508230056 73 58 1.7 5.2 0.01 0.05 0.05 96 1007.5
20260508225955 73 63 2.6 5.2 0.01 0.04 0.05 96 1007.5
20260508225855 73 63 3.5 5.2 0.01 0.04 0.05 96 1007.4
20260508225755 73 65 3.5 6.1 0.01 0.04 0.05 96 1007.4
20260508225655 73 73 3.5 6.1 0.01 0.04 0.05 96 1007.4
20260508225554 73 68 4.3 6.1 0.01 0.04 0.05 96 1007.4
20260508225454 73 68 4.3 6.1 0.01 0.04 0.05 96 1007.4
20260508225355 73 68 4.3 6.1 0.01 0.04 0.05 96 1007.3
20260508225254 73 68 4.3 6.1 0.01 0.04 0.05 96 1007.3
20260508225153 73 97 5.2 6.1 0.01 0.04 0.05 96 1007.3
20260508225053 73 82 5.2 6.1 0.01 0.04 0.05 96 1007.3
20260508224954 73 85 4.3 6.1 0.01 0.04 0.05 96 1007.4
20260508224853 73 99 3.5 6.1 0.01 0.04 0.05 96 1007.3
20260508224753 73 71 2.6 4.3 0.01 0.04 0.05 96 1007.3
20260508224654 73 54 2.6 5.2 0.01 0.04 0.05 96 1007.4
20260508224553 73 59 3.5 5.2 0.01 0.04 0.05 96 1007.4
20260508224454 73 41 3.5 5.2 0.01 0.04 0.05 96 1007.4
20260508224353 73 35 2.6 5.2 0.01 0.04 0.05 96 1007.4
20260508224255 72 35 2.6 5.2 0.01 0.04 0.05 96 1007.5
20260508224154 72 62 2.6 5.2 0.01 0.04 0.05 96 1007.6
20260508224054 72 62 2.6 5.2 0.01 0.04 0.05 96 1007.5
20260508223953 72 56 1.7 5.2 0.01 0.04 0.05 96 1007.5
20260508223853 72 58 3.5 5.2 0.01 0.04 0.05 95 1007.5
20260508223753 72 58 3.5 5.2 0.01 0.04 0.05 96 1007.5
20260508223654 72 49 3.5 5.2 0.01 0.04 0.05 96 1007.4
20260508223554 72 42 3.5 5.2 0.01 0.04 0.05 95 1007.4
20260508223453 72 47 3.5 5.2 0.01 0.04 0.05 95 1007.5
20260508223353 73 51 3.5 5.2 0.01 0.04 0.05 95 1007.5
20260508223255 73 58 1.7 4.3 0.01 0.04 0.05 96 1007.5
20260508223153 73 55 1.7 3.5 0.01 0.04 0.04 96 1007.5
20260508223053 73 55 2.6 3.5 0.00 0.04 0.04 96 1007.5
20260508222954 73 55 2.6 3.5 0.00 0.04 0.04 96 1007.5
20260508222854 72 58 3.5 4.3 0.00 0.04 0.04 96 1007.5
20260508222753 72 63 3.5 4.3 0.00 0.04 0.04 95 1007.5
20260508222653 72 56 3.5 4.3 0.00 0.04 0.04 95 1007.5
20260508222555 72 56 3.5 4.3 0.00 0.04 0.04 95 1007.6
20260508222453 72 61 3.5 4.3 0.00 0.04 0.04 95 1007.5
20260508222353 72 59 2.6 4.3 0.00 0.04 0.04 95 1007.6
20260508222254 72 47 2.6 4.3 0.00 0.04 0.04 95 1007.6
20260508222154 72 47 2.6 4.3 0.00 0.04 0.04 95 1007.6
20260508222054 72 47 2.6 4.3 0.00 0.04 0.04 95 1007.6
20260508221954 72 47 2.6 4.3 0.00 0.04 0.04 95 1007.6
20260508221853 72 34 1.7 3.5 0.00 0.04 0.04 96 1007.7
20260508221755 72 34 1.7 3.5 0.00 0.04 0.04 96 1007.6
20260508221653 72 34 1.7 4.3 0.00 0.04 0.04 96 1007.6
20260508221555 72 34 1.7 4.3 0.00 0.04 0.04 95 1007.7
20260508221454 72 34 1.7 4.3 0.00 0.04 0.04 95 1007.7
20260508221354 72 34 2.6 4.3 0.00 0.04 0.04 95 1007.7
20260508221252 72 34 2.6 4.3 0.00 0.04 0.04 95 1007.6
20260508221154 72 32 2.6 4.3 0.00 0.04 0.04 95 1007.6
20260508221052 72 32 2.6 4.3 0.00 0.04 0.04 95 1007.6
20260508220952 72 42 2.6 4.3 0.00 0.04 0.04 95 1007.6
20260508220853 72 41 2.6 4.3 0.00 0.04 0.04 95 1007.7
20260508220754 72 42 2.6 4.3 0.00 0.04 0.04 95 1007.7
20260508220653 73 42 1.7 5.2 0.00 0.04 0.04 95 1007.7
20260508220552 73 42 1.7 5.2 0.00 0.04 0.04 96 1007.7
20260508220454 72 41 1.7 5.2 0.00 0.04 0.04 96 1007.7
20260508220353 72 41 1.7 5.2 0.00 0.04 0.04 95 1007.7
20260508220252 72 41 2.6 5.2 0.00 0.04 0.04 95 1007.7
20260508220153 72 41 2.6 5.2 0.00 0.04 0.04 95 1007.7
20260508220053 72 42 3.5 5.2 0.00 0.04 0.04 95 1007.7
20260508215952 72 34 3.5 5.2 0.00 0.04 0.04 95 1007.7
20260508215852 72 31 3.5 5.2 0.00 0.04 0.04 95 1007.6
20260508215754 72 49 3.5 5.2 0.00 0.04 0.04 95 1007.6
20260508215652 72 38 2.6 5.2 0.00 0.04 0.04 95 1007.6
20260508215553 72 52 2.6 5.2 0.00 0.04 0.04 95 1007.6
20260508215455 72 55 3.5 5.2 0.00 0.04 0.04 95 1007.6
20260508215353 72 54 2.6 5.2 0.00 0.04 0.04 95 1007.7
20260508215253 72 47 2.6 5.2 0.00 0.04 0.04 95 1007.7
20260508215152 72 47 2.6 5.2 0.00 0.04 0.04 95 1007.6
20260508215053 72 59 3.5 5.2 0.00 0.04 0.04 95 1007.7
20260508214953 72 52 2.6 5.2 0.00 0.04 0.04 95 1007.7
20260508214852 72 51 1.7 4.3 0.00 0.04 0.04 95 1007.7
20260508214754 72 51 1.7 4.3 0.00 0.04 0.04 95 1007.7
20260508214653 72 45 1.7 4.3 0.00 0.04 0.04 95 1007.7
20260508214552 72 45 2.6 4.3 0.00 0.04 0.04 95 1007.8
20260508214453 72 42 2.6 4.3 0.00 0.04 0.04 95 1007.9
20260508214354 72 59 3.5 4.3 0.00 0.04 0.04 95 1007.9
20260508214253 72 56 3.5 4.3 0.00 0.04 0.04 95 1007.9
20260508214152 72 62 2.6 4.3 0.00 0.04 0.04 95 1007.9
20260508214053 72 49 2.6 4.3 0.00 0.04 0.04 95 1007.9
20260508213952 72 48 3.5 4.3 0.00 0.04 0.04 95 1007.9
20260508213853 72 48 3.5 4.3 0.00 0.04 0.04 95 1008.0
20260508213753 72 47 2.6 4.3 0.00 0.04 0.04 95 1008.0
20260508213653 72 47 1.7 4.3 0.00 0.04 0.04 95 1007.9
20260508213552 72 47 2.6 4.3 0.00 0.04 0.04 95 1007.9
20260508213451 72 48 2.6 4.3 0.00 0.04 0.04 94 1008.0
20260508213353 72 48 3.5 4.3 0.00 0.04 0.04 94 1008.0
20260508213253 72 42 3.5 4.3 0.00 0.04 0.04 94 1008.0
20260508213151 73 39 3.5 4.3 0.00 0.04 0.04 94 1007.9
20260508213052 73 38 2.6 4.3 0.00 0.04 0.04 94 1008.0
20260508212952 73 47 2.6 4.3 0.00 0.04 0.04 94 1008.0
20260508212852 73 45 1.7 4.3 0.00 0.04 0.04 94 1008.0
20260508212752 73 44 2.6 4.3 0.00 0.04 0.04 94 1008.0
20260508212652 73 44 2.6 4.3 0.00 0.04 0.04 94 1008.0
20260508212554 73 42 2.6 4.3 0.00 0.04 0.04 94 1008.0
20260508212453 73 32 1.7 5.2 0.00 0.04 0.04 94 1007.9
20260508212352 73 63 1.7 5.2 0.00 0.04 0.04 94 1008.0
20260508212253 73 63 3.5 5.2 0.00 0.04 0.04 94 1008.0
20260508212152 73 62 2.6 5.2 0.00 0.04 0.04 94 1007.9
20260508212052 73 69 2.6 5.2 0.00 0.04 0.04 94 1008.0
20260508211953 73 73 2.6 5.2 0.00 0.04 0.04 94 1007.9
20260508211852 73 59 2.6 5.2 0.00 0.04 0.04 94 1007.9
20260508211753 73 56 3.5 5.2 0.00 0.04 0.04 94 1007.9
20260508211651 73 65 3.5 5.2 0.00 0.04 0.04 94 1007.9
20260508211551 73 73 3.5 5.2 0.00 0.04 0.04 94 1007.8
20260508211452 73 85 3.5 5.2 0.00 0.04 0.04 94 1007.8
20260508211353 73 79 3.5 5.2 0.00 0.04 0.04 94 1007.8
20260508211252 73 93 2.6 4.3 0.00 0.04 0.04 93 1007.8
20260508211152 73 52 2.6 4.3 0.00 0.04 0.04 93 1007.8
20260508211051 73 51 2.6 4.3 0.00 0.04 0.04 93 1007.9
20260508210952 73 54 2.6 4.3 0.00 0.04 0.04 93 1007.9
20260508210851 73 59 1.7 4.3 0.00 0.04 0.04 93 1008.0
20260508210752 73 59 1.7 4.3 0.00 0.04 0.04 93 1008.0
20260508210651 73 59 1.7 4.3 0.01 0.04 0.04 93 1008.0
20260508210553 73 61 2.6 4.3 0.01 0.04 0.04 93 1008.0
20260508210451 73 61 3.5 4.3 0.01 0.04 0.04 93 1008.0
20260508210352 73 54 2.6 3.5 0.01 0.04 0.04 93 1007.9
20260508210252 73 54 2.6 3.5 0.01 0.04 0.04 93 1007.9
20260508210152 73 63 1.7 3.5 0.01 0.04 0.04 93 1007.9
20260508210051 73 56 1.7 3.5 0.02 0.04 0.04 93 1007.9
20260508205951 73 87 1.7 3.5 0.02 0.02 0.04 93 1007.9
20260508205854 73 87 2.6 3.5 0.02 0.02 0.04 93 1007.9
20260508205752 73 87 1.7 3.5 0.02 0.02 0.04 93 1008.0
20260508205651 73 86 0.0 2.6 0.02 0.02 0.04 93 1008.2
20260508205553 73 86 0.9 2.6 0.02 0.02 0.04 93 1008.2
20260508205451 73 86 1.7 2.6 0.02 0.02 0.04 93 1008.2
20260508205351 73 86 0.9 1.7 0.02 0.02 0.04 93 1008.2
20260508205252 73 87 0.9 2.6 0.03 0.02 0.04 93 1008.1
20260508205153 73 87 0.9 2.6 0.03 0.02 0.04 93 1008.0
20260508205050 73 87 0.0 3.5 0.03 0.02 0.04 93 1008.1
20260508204950 73 87 0.0 3.5 0.03 0.02 0.04 93 1008.1
20260508204851 73 87 0.0 3.5 0.03 0.02 0.04 93 1008.2
20260508204752 73 87 0.0 3.5 0.03 0.02 0.04 93 1008.2
20260508204652 73 87 0.0 3.5 0.03 0.02 0.04 93 1008.2
20260508204551 73 87 0.9 3.5 0.03 0.02 0.04 94 1008.2
20260508204452 73 87 0.9 3.5 0.03 0.02 0.04 94 1008.2
20260508204352 73 87 0.9 3.5 0.03 0.02 0.04 94 1008.2
20260508204251 73 87 1.7 3.5 0.04 0.02 0.04 93 1008.0
20260508204152 73 87 2.6 5.2 0.04 0.02 0.04 94 1008.0
20260508204051 73 89 1.7 6.1 0.04 0.02 0.04 94 1008.0
20260508203951 73 102 1.7 6.1 0.04 0.02 0.04 94 1007.9
20260508203851 73 103 1.7 6.1 0.04 0.02 0.04 94 1008.0
20260508203752 73 117 1.7 6.1 0.04 0.02 0.04 94 1008.1
20260508203651 73 73 1.7 6.1 0.04 0.02 0.04 94 1008.1
20260508203551 73 73 1.7 6.1 0.04 0.02 0.04 94 1008.0
20260508203451 73 48 1.7 6.1 0.04 0.02 0.04 94 1007.9
20260508203351 73 44 2.6 6.1 0.04 0.02 0.04 94 1007.8
20260508203250 73 76 3.5 6.1 0.04 0.02 0.04 94 1007.8
20260508203150 73 93 3.5 6.1 0.04 0.02 0.04 94 1007.8
20260508203051 73 94 3.5 6.1 0.04 0.02 0.04 94 1007.7
20260508202950 73 92 3.5 6.1 0.04 0.02 0.04 94 1007.9
20260508202850 73 63 2.6 6.1 0.04 0.02 0.04 95 1007.9
20260508202751 73 55 4.3 6.1 0.04 0.02 0.04 95 1007.9
20260508202651 72 42 4.3 6.1 0.04 0.02 0.04 95 1007.9
20260508202551 72 71 4.3 6.1 0.04 0.02 0.04 95 1007.9
20260508202451 72 71 4.3 6.1 0.04 0.02 0.04 94 1007.9
20260508202350 72 52 3.5 6.1 0.04 0.02 0.04 94 1007.9
20260508202252 72 62 3.5 6.1 0.04 0.02 0.04 94 1007.9
20260508202150 72 72 4.3 4.3 0.04 0.02 0.04 94 1008.0
20260508202052 72 62 3.5 4.3 0.04 0.02 0.04 94 1008.1
20260508201950 72 61 3.5 4.3 0.04 0.02 0.04 94 1008.2
20260508201851 72 55 2.6 4.3 0.04 0.02 0.04 94 1008.3
20260508201752 72 54 2.6 4.3 0.04 0.02 0.04 94 1008.3
20260508201652 72 69 1.7 5.2 0.04 0.02 0.04 95 1008.4
20260508201551 72 80 1.7 5.2 0.04 0.02 0.04 94 1008.5
20260508201451 72 83 1.7 5.2 0.04 0.02 0.04 94 1008.5
20260508201351 72 118 1.7 5.2 0.04 0.02 0.04 94 1008.5
20260508201250 73 120 2.6 6.1 0.04 0.02 0.04 94 1008.5
20260508201151 73 85 1.7 6.1 0.04 0.02 0.04 95 1008.5
20260508201051 73 68 1.7 6.1 0.04 0.02 0.04 95 1008.5
20260508200950 73 87 1.7 6.1 0.04 0.02 0.04 95 1008.4
20260508200849 72 134 3.5 6.1 0.04 0.02 0.04 94 1008.4
20260508200751 72 102 3.5 6.1 0.04 0.02 0.04 94 1008.4
20260508200651 72 97 3.5 6.1 0.03 0.02 0.03 94 1008.4
20260508200550 72 113 4.3 6.1 0.03 0.02 0.03 94 1008.3
20260508200450 72 102 5.2 6.1 0.03 0.02 0.03 94 1008.3
20260508200351 72 111 5.2 6.1 0.03 0.02 0.03 94 1008.3
20260508200251 72 123 4.3 6.1 0.03 0.02 0.03 94 1008.3
20260508200152 72 124 3.5 5.2 0.03 0.02 0.02 94 1008.4
20260508200051 72 90 2.6 3.5 0.02 0.02 0.02 94 1008.4
20260508195950 72 90 1.7 3.5 0.02 0.00 0.02 94 1008.5
20260508195850 72 111 1.7 3.5 0.02 0.00 0.02 93 1008.6
20260508195749 72 152 1.7 3.5 0.02 0.00 0.02 93 1008.6
20260508195651 72 102 1.7 3.5 0.02 0.00 0.02 93 1008.6
20260508195549 72 111 1.7 3.5 0.02 0.00 0.02 93 1008.5
20260508195450 72 120 1.7 3.5 0.02 0.00 0.02 93 1008.6
20260508195350 72 99 1.7 3.5 0.02 0.00 0.01 93 1008.6
20260508195250 72 103 2.6 3.5 0.01 0.00 0.01 92 1008.7
20260508195149 72 164 2.6 3.5 0.01 0.00 0.01 92 1008.8
20260508195049 72 116 1.7 3.5 0.01 0.00 0.01 92 1008.7
20260508194950 72 127 0.9 4.3 0.01 0.00 0.01 92 1008.7
20260508194850 72 89 0.0 4.3 0.01 0.00 0.01 92 1008.9
20260508194750 73 89 0.0 4.3 0.01 0.00 0.01 92 1008.9
20260508194649 73 89 0.0 4.3 0.01 0.00 0.01 92 1008.9
20260508194549 73 89 0.9 4.3 0.01 0.00 0.01 92 1009.0
20260508194450 73 89 1.7 4.3 0.01 0.00 0.01 91 1009.0
20260508194349 73 89 1.7 4.3 0.01 0.00 0.00 91 1009.0
20260508194250 73 87 2.6 4.3 0.00 0.00 0.00 91 1008.9
20260508194149 73 85 3.5 4.3 0.00 0.00 0.00 91 1008.9
20260508194050 73 114 3.5 4.3 0.00 0.00 0.00 91 1008.9
20260508193950 73 94 3.5 4.3 0.00 0.00 0.00 91 1009.0
20260508193849 72 87 3.5 4.3 0.00 0.00 0.00 90 1009.0
20260508193749 73 86 3.5 4.3 0.00 0.00 0.00 90 1009.0
20260508193649 72 104 3.5 4.3 0.00 0.00 0.00 89 1009.0
20260508193551 73 85 3.5 4.3 0.00 0.00 0.00 90 1009.0
20260508193449 73 83 2.6 4.3 0.00 0.00 0.00 90 1009.1
20260508193351 73 90 2.6 4.3 0.00 0.00 0.00 90 1009.0
20260508193250 73 83 2.6 4.3 0.00 0.00 0.00 89 1009.0
20260508193150 73 83 2.6 4.3 0.00 0.00 0.00 89 1009.1
20260508193049 73 63 2.6 4.3 0.00 0.00 0.00 89 1009.1
20260508192949 73 63 3.5 4.3 0.00 0.00 0.00 89 1009.0
20260508192850 73 62 2.6 7.8 0.00 0.00 0.00 89 1009.1
20260508192748 73 79 1.7 7.8 0.00 0.00 0.00 90 1009.1
20260508192649 73 89 1.7 7.8 0.00 0.00 0.00 89 1009.1
20260508192551 73 89 2.6 7.8 0.00 0.00 0.00 89 1009.1
20260508192449 73 89 1.7 7.8 0.00 0.00 0.00 89 1009.1
20260508192350 73 89 1.7 7.8 0.00 0.00 0.00 89 1009.0
20260508192249 73 111 2.6 7.8 0.00 0.00 0.00 89 1009.0
20260508192151 73 111 2.6 7.8 0.00 0.00 0.00 89 1009.0
20260508192050 73 118 4.3 7.8 0.00 0.00 0.00 89 1009.1
20260508191949 73 102 5.2 7.8 0.00 0.00 0.00 88 1009.1
20260508191849 73 99 4.3 7.8 0.00 0.00 0.00 89 1009.0
20260508191748 73 76 4.3 7.8 0.00 0.00 0.00 88 1009.1
20260508191649 73 82 4.3 7.8 0.00 0.00 0.00 88 1008.9
20260508191549 73 85 4.3 7.8 0.00 0.00 0.00 88 1009.0
20260508191450 73 79 4.3 8.7 0.00 0.00 0.00 88 1008.9
20260508191348 73 80 4.3 8.7 0.00 0.00 0.00 88 1008.9
20260508191249 73 83 4.3 10.4 0.00 0.00 0.00 88 1009.0
20260508191148 73 82 4.3 10.4 0.00 0.00 0.00 88 1009.0
20260508191048 73 86 4.3 10.4 0.00 0.00 0.00 88 1008.9
20260508190948 73 96 3.5 10.4 0.00 0.00 0.00 88 1009.0
20260508190848 73 106 3.5 10.4 0.00 0.00 0.00 88 1008.9
20260508190750 73 85 3.5 10.4 0.00 0.00 0.00 88 1009.0
20260508190646 73 86 5.2 10.4 0.00 0.00 0.00 88 1009.0
20260508190547 73 103 6.1 10.4 0.00 0.00 0.00 88 1009.0
20260508190443 73 86 7.0 11.3 0.00 0.00 0.00 88 1009.0
20260508190343 73 109 5.2 11.3 0.00 0.00 0.00 88 1008.9
20260508190241 73 118 3.5 11.3 0.00 0.00 0.00 88 1009.0
20260508190140 73 87 3.5 11.3 0.00 0.00 0.00 89 1009.0
20260508190039 73 104 5.2 11.3 0.00 0.00 0.00 88 1009.1
20260508185938 73 109 6.1 11.3 0.00 0.00 0.00 88 1009.0
20260508185838 73 111 7.0 11.3 0.00 0.00 0.00 88 1009.0
20260508185735 73 82 7.0 11.3 0.00 0.00 0.00 88 1009.0
20260508185634 73 127 7.0 11.3 0.00 0.00 0.00 88 1008.9
20260508185533 73 123 7.0 11.3 0.00 0.00 0.00 88 1008.9
20260508185430 73 125 7.0 10.4 0.00 0.00 0.00 88 1008.8
20260508185330 73 107 6.1 10.4 0.00 0.00 0.00 88 1008.9
20260508185227 73 103 5.2 10.4 0.00 0.00 0.00 89 1008.8
20260508185127 73 111 6.1 10.4 0.00 0.00 0.00 89 1008.9
20260508185026 73 114 7.8 10.4 0.00 0.00 0.00 88 1008.9
20260508184922 73 104 7.0 10.4 0.00 0.00 0.00 89 1008.9
20260508184820 73 111 6.1 10.4 0.00 0.00 0.00 89 1009.0
20260508184719 73 111 6.1 10.4 0.00 0.00 0.00 89 1008.9
20260508184618 73 125 7.0 10.4 0.00 0.00 0.00 89 1008.9
20260508184516 73 124 7.8 10.4 0.00 0.00 0.00 89 1008.9
20260508184415 73 113 7.0 9.6 0.00 0.00 0.00 89 1008.9
20260508184313 73 109 5.2 9.6 0.00 0.00 0.00 89 1008.9
20260508184212 73 94 5.2 9.6 0.00 0.00 0.00 89 1009.0
20260508184111 72 111 6.1 9.6 0.00 0.00 0.00 89 1008.9
20260508184010 72 102 6.1 9.6 0.00 0.00 0.00 89 1009.0
20260508183908 72 111 5.2 8.7 0.00 0.00 0.00 89 1009.0
20260508183805 72 124 6.1 8.7 0.00 0.00 0.00 89 1008.9
20260508183703 72 97 6.1 8.7 0.00 0.00 0.00 89 1008.9
20260508183603 72 128 5.2 8.7 0.00 0.00 0.00 89 1009.0
20260508183503 72 79 6.1 7.8 0.00 0.00 0.00 89 1009.0
20260508183402 72 82 6.1 7.8 0.00 0.00 0.00 89 1009.0
20260508183303 72 89 5.2 7.8 0.00 0.00 0.00 89 1009.0
20260508183203 72 87 4.3 6.1 0.00 0.00 0.00 89 1009.1
20260508183103 72 100 4.3 6.1 0.00 0.00 0.00 89 1009.2
20260508183003 72 96 4.3 5.2 0.00 0.00 0.00 89 1009.2
20260508182904 72 86 4.3 5.2 0.00 0.00 0.00 89 1009.3
20260508182803 72 93 4.3 5.2 0.00 0.00 0.00 89 1009.4
20260508182703 72 78 4.3 5.2 0.00 0.00 0.00 89 1009.3
20260508182602 72 94 3.5 5.2 0.00 0.00 0.00 89 1009.3
20260508182502 72 96 3.5 5.2 0.00 0.00 0.00 89 1009.3
20260508182402 72 104 3.5 5.2 0.00 0.00 0.00 89 1009.3
20260508182306 72 90 3.5 5.2 0.00 0.00 0.00 89 1009.4
20260508182203 72 92 4.3 5.2 0.00 0.00 0.00 89 1009.4
20260508182102 72 86 3.5 5.2 0.00 0.00 0.00 89 1009.5
20260508182003 72 80 3.5 5.2 0.00 0.00 0.00 89 1009.4
20260508181903 72 96 2.6 5.2 0.00 0.00 0.00 89 1009.5
20260508181803 72 71 2.6 5.2 0.00 0.00 0.00 89 1009.5
20260508181702 72 30 2.6 5.2 0.00 0.00 0.00 89 1009.6
20260508181603 72 72 4.3 6.1 0.00 0.00 0.00 89 1009.6
20260508181504 71 96 3.5 6.1 0.00 0.00 0.00 89 1009.6
20260508181402 72 82 3.5 6.1 0.00 0.00 0.00 89 1009.7
20260508181301 72 90 3.5 6.1 0.00 0.00 0.00 89 1009.7
20260508181203 72 72 3.5 6.1 0.00 0.00 0.00 89 1009.7
20260508181103 72 66 3.5 6.1 0.00 0.00 0.00 89 1009.8
20260508181002 72 75 3.5 6.1 0.00 0.00 0.00 89 1009.7
20260508180903 72 51 2.6 6.1 0.00 0.00 0.00 89 1009.7
20260508180802 72 55 4.3 6.1 0.00 0.00 0.00 89 1009.7
20260508180702 72 55 4.3 7.8 0.00 0.00 0.00 89 1009.7
20260508180603 72 32 3.5 7.8 0.00 0.00 0.00 90 1009.7
20260508180502 72 52 2.6 7.8 0.00 0.00 0.00 90 1009.8
20260508180402 72 69 2.6 7.8 0.00 0.00 0.00 90 1009.7
20260508180302 72 73 3.5 7.8 0.00 0.00 0.00 90 1009.7
20260508180204 72 65 3.5 7.8 0.00 0.00 0.00 90 1009.7
20260508180003 71 90 4.3 7.8 0.00 0.00 0.00 90 1009.7
20260508175904 71 92 5.2 7.8 0.00 0.00 0.00 90 1009.7
20260508175802 71 90 5.2 7.8 0.00 0.00 0.00 90 1009.7
20260508175702 71 82 5.2 7.8 0.00 0.00 0.00 90 1009.7
20260508175603 71 109 5.2 7.8 0.00 0.00 0.00 90 1009.7
20260508175504 71 94 4.3 5.2 0.00 0.00 0.00 90 1009.8
20260508175402 71 78 3.5 6.1 0.00 0.00 0.00 90 1009.8
20260508175305 71 44 3.5 6.1 0.00 0.00 0.00 90 1009.8
20260508175203 71 49 4.3 6.1 0.00 0.00 0.00 90 1009.9
20260508175102 71 69 3.5 6.1 0.00 0.00 0.00 89 1009.9
20260508175004 71 62 3.5 6.1 0.00 0.00 0.00 89 1010.0
20260508174903 71 87 2.6 6.1 0.00 0.00 0.00 89 1010.1
20260508174803 71 83 2.6 6.1 0.00 0.00 0.00 89 1010.2
20260508174703 71 66 3.5 6.1 0.00 0.00 0.00 89 1010.1
20260508174602 71 114 5.2 6.1 0.00 0.00 0.00 89 1010.2
20260508174504 71 118 4.3 6.1 0.00 0.00 0.00 89 1010.1
20260508174402 71 120 4.3 6.1 0.00 0.00 0.00 89 1010.1
20260508174303 71 116 4.3 5.2 0.00 0.00 0.00 89 1010.1
20260508174203 71 83 4.3 5.2 0.00 0.00 0.00 89 1010.1
20260508174103 71 99 3.5 5.2 0.00 0.00 0.00 89 1010.0
20260508174001 71 83 2.6 7.8 0.00 0.00 0.00 89 1010.1
20260508173902 72 48 1.7 7.8 0.00 0.00 0.00 88 1010.0
20260508173802 72 41 1.7 7.8 0.00 0.00 0.00 89 1010.1
20260508173701 72 41 1.7 7.8 0.00 0.00 0.00 89 1010.1
20260508173602 72 39 0.9 7.8 0.00 0.00 0.00 89 1010.1
20260508173504 72 39 1.7 7.8 0.00 0.00 0.00 89 1010.1
20260508173402 72 42 1.7 7.8 0.00 0.00 0.00 89 1010.0
20260508173302 72 42 3.5 7.8 0.00 0.00 0.00 88 1010.0
20260508173204 72 42 4.3 7.8 0.00 0.00 0.00 88 1010.0
20260508173103 72 58 4.3 7.8 0.00 0.00 0.00 88 1010.0
20260508173003 72 72 4.3 6.1 0.00 0.00 0.00 87 1010.0
20260508172903 72 79 2.6 5.2 0.00 0.00 0.00 88 1010.0
20260508172804 72 79 2.6 6.1 0.00 0.00 0.00 88 1010.1
20260508172703 72 79 2.6 6.1 0.00 0.00 0.00 88 1010.1
20260508172603 72 79 2.6 8.7 0.00 0.00 0.00 88 1010.1
20260508172503 72 79 1.7 8.7 0.00 0.00 0.00 88 1010.1
20260508172402 72 76 2.6 8.7 0.00 0.00 0.00 88 1010.1
20260508172306 71 93 3.5 8.7 0.00 0.00 0.00 88 1010.1
20260508172202 71 128 3.5 8.7 0.00 0.00 0.00 87 1010.1
20260508172103 71 83 3.5 8.7 0.00 0.00 0.00 87 1010.2
20260508172002 71 80 4.3 8.7 0.00 0.00 0.00 87 1010.1
20260508171902 71 104 5.2 8.7 0.00 0.00 0.00 87 1010.1
20260508171803 71 109 6.1 8.7 0.00 0.00 0.00 87 1010.1
20260508171702 72 93 6.1 8.7 0.00 0.00 0.00 87 1010.2
20260508171603 72 104 6.1 8.7 0.00 0.00 0.00 87 1010.2
20260508171502 72 87 6.1 8.7 0.00 0.00 0.00 87 1010.1
20260508171402 72 93 5.2 7.8 0.00 0.00 0.00 87 1010.2
20260508171303 72 92 5.2 7.8 0.00 0.00 0.00 87 1010.2
20260508171202 72 90 5.2 7.8 0.00 0.00 0.00 86 1010.2
20260508171103 72 104 4.3 7.8 0.00 0.00 0.00 86 1010.2
20260508171002 72 104 4.3 7.8 0.00 0.00 0.00 87 1010.1
20260508170902 72 73 4.3 8.7 0.00 0.00 0.00 87 1010.1
20260508170803 72 82 5.2 8.7 0.00 0.00 0.00 87 1010.1
20260508170702 72 76 5.2 8.7 0.00 0.00 0.00 87 1010.1
20260508170603 71 58 4.3 8.7 0.00 0.00 0.00 87 1010.1
20260508170500 71 120 4.3 8.7 0.00 0.00 0.00 87 1010.1
20260508170358 71 89 4.3 8.7 0.00 0.00 0.00 87 1010.1
20260508170253 71 96 4.3 8.7 0.00 0.00 0.00 87 1010.3
20260508170145 71 79 5.2 8.7 0.00 0.00 0.00 87 1010.2
20260508170046 71 82 6.1 8.7 0.00 0.00 0.00 87 1010.2
20260508165946 71 100 5.2 8.7 0.00 0.00 0.00 87 1010.2
20260508165846 71 120 4.3 8.7 0.00 0.00 0.00 88 1010.1
20260508165746 71 117 5.2 9.6 0.00 0.00 0.00 88 1010.2
20260508165645 71 73 5.2 10.4 0.00 0.00 0.00 88 1010.2
20260508165546 71 45 4.3 10.4 0.00 0.00 0.00 88 1010.2
20260508165445 71 51 4.3 10.4 0.00 0.00 0.00 88 1010.2
20260508165346 71 79 4.3 10.4 0.00 0.00 0.00 88 1010.3
20260508165247 71 52 3.5 10.4 0.00 0.00 0.00 88 1010.3
20260508165146 70 97 3.5 10.4 0.00 0.00 0.00 88 1010.3
20260508165046 70 89 4.3 10.4 0.00 0.00 0.00 88 1010.4
20260508164946 70 63 6.1 10.4 0.00 0.00 0.00 88 1010.3
20260508164845 70 75 7.8 10.4 0.00 0.00 0.00 88 1010.4
20260508164745 70 86 7.8 10.4 0.00 0.00 0.00 88 1010.4
20260508164645 70 97 6.1 11.3 0.00 0.00 0.00 88 1010.4
20260508164548 70 82 5.2 11.3 0.00 0.00 0.00 88 1010.5
20260508164445 70 86 5.2 11.3 0.00 0.00 0.00 87 1010.6
20260508164347 71 93 7.0 11.3 0.00 0.00 0.00 87 1010.6
20260508164246 71 85 7.8 11.3 0.00 0.00 0.00 88 1010.6
20260508164145 71 109 7.0 11.3 0.00 0.00 0.00 88 1010.5
20260508164047 71 76 7.0 11.3 0.00 0.00 0.00 88 1010.5
20260508163945 71 71 7.0 11.3 0.00 0.00 0.00 88 1010.5
20260508163847 70 72 7.0 11.3 0.00 0.00 0.00 88 1010.5
20260508163747 70 96 6.1 11.3 0.00 0.00 0.00 88 1010.4
20260508163646 70 104 5.2 10.4 0.00 0.00 0.00 88 1010.4
20260508163546 70 71 5.2 10.4 0.00 0.00 0.00 89 1010.4
20260508163445 70 78 5.2 10.4 0.00 0.00 0.00 89 1010.5
20260508163345 70 59 4.3 10.4 0.00 0.00 0.00 89 1010.5
20260508163245 70 39 6.1 10.4 0.00 0.00 0.00 89 1010.5
20260508163146 69 102 6.1 10.4 0.00 0.00 0.00 89 1010.6
20260508163045 69 106 5.2 10.4 0.00 0.00 0.00 89 1010.6
20260508162945 69 65 5.2 9.6 0.00 0.00 0.00 89 1010.6
20260508162845 69 73 5.2 9.6 0.00 0.00 0.00 89 1010.7
20260508162744 69 80 6.1 9.6 0.00 0.00 0.00 90 1010.7
20260508162645 69 62 5.2 7.8 0.00 0.00 0.00 90 1010.8
20260508162547 69 52 4.3 6.1 0.00 0.00 0.00 90 1010.8
20260508162446 69 69 4.3 6.1 0.00 0.00 0.00 90 1010.9
20260508162345 69 55 4.3 5.2 0.00 0.00 0.00 90 1010.9
20260508162245 69 48 4.3 5.2 0.00 0.00 0.00 90 1011.0
20260508162146 69 90 3.5 6.1 0.00 0.00 0.00 90 1011.1
20260508162046 69 73 3.5 7.8 0.00 0.00 0.00 90 1011.1
20260508161944 69 86 4.3 7.8 0.00 0.00 0.00 90 1011.1
20260508161844 69 113 4.3 7.8 0.00 0.00 0.00 90 1011.1
20260508161744 69 55 4.3 7.8 0.00 0.00 0.00 90 1011.1
20260508161646 69 80 4.3 7.8 0.00 0.00 0.00 90 1011.1
20260508161545 69 80 4.3 7.8 0.00 0.00 0.00 90 1011.1
20260508161445 69 80 4.3 7.8 0.00 0.00 0.00 90 1011.2
20260508161346 69 87 5.2 7.8 0.00 0.00 0.00 90 1011.2
20260508161245 68 111 5.2 7.8 0.00 0.00 0.00 90 1011.3
20260508161145 68 114 5.2 7.8 0.00 0.00 0.00 90 1011.2
20260508161045 68 86 6.1 7.8 0.00 0.00 0.00 90 1011.1
20260508160944 68 97 4.3 7.8 0.00 0.00 0.00 90 1011.2
20260508160844 68 78 2.6 6.1 0.00 0.00 0.00 90 1011.1
20260508160745 68 66 3.5 6.1 0.00 0.00 0.00 90 1011.1
20260508160645 68 65 3.5 6.1 0.00 0.00 0.00 90 1011.3
20260508160544 68 68 3.5 6.1 0.00 0.00 0.00 90 1011.3
20260508160445 68 63 4.3 6.1 0.00 0.00 0.00 90 1011.3
20260508160344 68 80 4.3 6.1 0.00 0.00 0.00 90 1011.4
20260508160245 68 55 4.3 6.1 0.00 0.00 0.00 89 1011.4
20260508160144 69 79 4.3 6.1 0.00 0.00 0.00 89 1011.4
20260508160046 69 80 3.5 6.1 0.00 0.00 0.00 90 1011.4
20260508155944 69 94 3.5 6.1 0.00 0.00 0.00 90 1011.3
20260508155844 69 86 2.6 9.6 0.00 0.00 0.00 90 1011.3
20260508155645 69 82 2.6 9.6 0.00 0.00 0.00 90 1011.2
20260508155544 68 62 3.5 9.6 0.00 0.00 0.00 90 1011.2
20260508155444 68 63 3.5 9.6 0.00 0.00 0.00 91 1011.2
20260508155346 68 51 1.7 9.6 0.00 0.00 0.00 91 1011.3
20260508155244 68 14 2.6 9.6 0.00 0.00 0.00 91 1011.2
20260508155145 68 45 3.5 9.6 0.00 0.00 0.00 91 1011.1
20260508155045 68 54 5.2 9.6 0.00 0.00 0.00 91 1011.1
20260508154945 68 32 6.1 9.6 0.00 0.00 0.00 91 1011.1
20260508154844 68 37 5.2 8.7 0.00 0.00 0.00 91 1011.1
20260508154744 68 37 6.1 8.7 0.00 0.00 0.00 91 1011.2
20260508154646 68 51 5.2 8.7 0.00 0.00 0.00 91 1011.2
20260508154543 68 30 4.3 7.8 0.00 0.00 0.00 91 1011.2
20260508154444 68 63 5.2 7.8 0.00 0.00 0.00 91 1011.2
20260508154346 68 35 6.1 7.8 0.00 0.00 0.00 90 1011.2
20260508154245 68 48 5.2 8.7 0.00 0.00 0.00 90 1011.3
20260508154143 68 48 3.5 8.7 0.00 0.00 0.00 90 1011.4
20260508154044 68 39 3.5 9.6 0.00 0.00 0.00 91 1011.6
20260508153944 68 39 3.5 10.4 0.00 0.00 0.00 90 1011.5
20260508153845 68 44 3.5 10.4 0.00 0.00 0.00 91 1011.5
20260508153743 68 28 3.5 10.4 0.00 0.00 0.00 91 1011.4
20260508153646 68 20 3.5 10.4 0.00 0.00 0.00 90 1011.4
20260508153545 68 32 5.2 10.4 0.00 0.00 0.00 90 1011.4
20260508153445 68 45 5.2 10.4 0.00 0.00 0.00 90 1011.4
20260508153344 68 47 5.2 10.4 0.00 0.00 0.00 90 1011.4
20260508153244 68 0 6.1 10.4 0.00 0.00 0.00 90 1011.3
20260508153143 68 31 7.0 10.4 0.00 0.00 0.00 90 1011.3
20260508153043 68 27 7.8 10.4 0.00 0.00 0.00 90 1011.3
20260508152943 68 30 6.1 10.4 0.00 0.00 0.00 90 1011.4
20260508152844 68 16 6.1 10.4 0.00 0.00 0.00 90 1011.3
20260508152743 68 20 6.1 10.4 0.00 0.00 0.00 90 1011.3
20260508152643 68 56 7.0 10.4 0.00 0.00 0.00 90 1011.3
20260508152545 68 0 7.0 10.4 0.00 0.00 0.00 90 1011.2
20260508152445 68 35 7.8 10.4 0.00 0.00 0.00 90 1011.3
20260508152344 68 49 7.8 10.4 0.00 0.00 0.00 90 1011.3
20260508152245 68 14 6.1 10.4 0.00 0.00 0.00 90 1011.3
20260508152144 68 45 3.5 10.4 0.00 0.00 0.00 90 1011.4
20260508152044 68 18 4.3 10.4 0.00 0.00 0.00 90 1011.4
20260508151943 68 31 6.1 10.4 0.00 0.00 0.00 90 1011.5
20260508151845 68 18 7.0 10.4 0.00 0.00 0.00 90 1011.4
20260508151743 68 32 7.0 10.4 0.00 0.00 0.00 90 1011.3
20260508151643 68 39 5.2 11.3 0.00 0.00 0.00 90 1011.4
20260508151544 68 20 4.3 11.3 0.00 0.00 0.00 90 1011.4
20260508151444 68 4 4.3 11.3 0.00 0.00 0.00 90 1011.4
20260508151343 68 319 6.1 11.3 0.00 0.00 0.00 89 1011.4
20260508151243 68 31 6.1 11.3 0.00 0.00 0.00 89 1011.4
20260508151144 68 30 5.2 11.3 0.00 0.00 0.00 89 1011.5
20260508151043 68 41 7.0 11.3 0.00 0.00 0.00 89 1011.4
20260508150943 68 47 7.0 11.3 0.00 0.00 0.00 89 1011.5
20260508150845 68 44 7.8 11.3 0.00 0.00 0.00 89 1011.4
20260508150743 68 55 7.8 11.3 0.00 0.00 0.00 89 1011.3
20260508150644 68 55 7.0 10.4 0.00 0.00 0.00 89 1011.3
20260508150543 68 27 9.6 10.4 0.00 0.00 0.00 89 1011.2
20260508150445 68 35 6.1 10.4 0.00 0.00 0.00 89 1011.2
20260508150344 68 35 6.1 13.0 0.00 0.00 0.00 89 1011.2
20260508150245 68 35 6.1 13.0 0.00 0.00 0.00 89 1011.3
20260508150135 68 37 5.2 13.0 0.00 0.00 0.00 89 1011.3
20260508150034 68 44 6.1 13.0 0.00 0.00 0.00 89 1011.3
20260508145932 68 39 6.1 13.0 0.00 0.00 0.00 89 1011.3
20260508145833 68 23 7.8 13.0 0.00 0.00 0.00 89 1011.3
20260508145733 68 32 7.8 13.0 0.00 0.00 0.00 89 1011.3
20260508145632 68 27 7.0 13.0 0.00 0.00 0.00 89 1011.4
20260508145532 68 44 7.0 13.0 0.00 0.00 0.00 89 1011.4
20260508145419 68 52 6.1 13.0 0.00 0.00 0.00 89 1011.4
20260508145316 68 18 5.2 9.6 0.00 0.00 0.00 89 1011.4
20260508145216 68 61 6.1 9.6 0.00 0.00 0.00 89 1011.4
20260508145113 68 34 6.1 9.6 0.00 0.00 0.00 89 1011.4
20260508145012 68 17 5.2 9.6 0.00 0.00 0.00 89 1011.3
20260508144911 68 54 5.2 9.6 0.00 0.00 0.00 89 1011.3
20260508144808 68 23 5.2 9.6 0.00 0.00 0.00 89 1011.5
20260508144708 68 35 5.2 9.6 0.00 0.00 0.00 89 1011.5
20260508144605 68 48 5.2 10.4 0.00 0.00 0.00 89 1011.6
20260508144504 68 24 6.1 10.4 0.00 0.00 0.00 89 1011.6
20260508144404 68 37 5.2 10.4 0.00 0.00 0.00 89 1011.6
20260508144303 68 23 5.2 10.4 0.00 0.00 0.00 89 1011.6
20260508144202 68 23 6.1 10.4 0.00 0.00 0.00 89 1011.6
20260508144102 68 54 7.0 10.4 0.00 0.00 0.00 88 1011.5
20260508144003 68 56 6.1 10.4 0.00 0.00 0.00 88 1011.6
20260508143901 68 30 6.1 11.3 0.00 0.00 0.00 88 1011.7
20260508143802 68 31 7.0 11.3 0.00 0.00 0.00 88 1011.7
20260508143704 68 61 7.8 11.3 0.00 0.00 0.00 88 1011.8
20260508143602 68 58 7.8 11.3 0.00 0.00 0.00 88 1011.9
20260508143504 68 31 7.0 11.3 0.00 0.00 0.00 88 1011.9
20260508143404 68 39 5.2 11.3 0.00 0.00 0.00 88 1011.9
20260508143303 68 25 6.1 11.3 0.00 0.00 0.00 88 1011.9
20260508143203 68 34 7.0 11.3 0.00 0.00 0.00 88 1011.9
20260508143102 68 37 7.0 11.3 0.00 0.00 0.00 88 1011.9
20260508143003 68 21 6.1 11.3 0.00 0.00 0.00 88 1011.9
20260508142904 68 18 6.1 10.4 0.00 0.00 0.00 88 1011.9
20260508142803 68 41 5.2 10.4 0.00 0.00 0.00 88 1011.9
20260508142702 68 23 5.2 10.4 0.00 0.00 0.00 87 1011.9
20260508142603 68 25 6.1 10.4 0.00 0.00 0.00 87 1011.9
20260508142504 68 38 7.0 10.4 0.00 0.00 0.00 87 1011.8
20260508142403 68 34 7.0 10.4 0.00 0.00 0.00 87 1011.8
20260508142306 68 32 6.1 9.6 0.00 0.00 0.00 87 1011.8
20260508142203 68 14 5.2 9.6 0.00 0.00 0.00 87 1011.8
20260508142103 68 32 4.3 8.7 0.00 0.00 0.00 87 1011.8
20260508142004 68 16 5.2 8.7 0.00 0.00 0.00 87 1011.8
20260508141902 68 358 5.2 8.7 0.00 0.00 0.00 86 1011.8
20260508141802 68 6 5.2 8.7 0.00 0.00 0.00 86 1011.8
20260508141704 68 0 4.3 8.7 0.00 0.00 0.00 86 1011.7
20260508141603 69 0 3.5 9.6 0.00 0.00 0.00 86 1011.7
20260508141503 68 21 3.5 10.4 0.00 0.00 0.00 86 1011.7
20260508141400 69 6 5.2 10.4 0.00 0.00 0.00 86 1011.7
20260508141258 69 28 6.1 10.4 0.00 0.00 0.00 86 1011.8
20260508141159 69 37 5.2 10.4 0.00 0.00 0.00 86 1011.8
20260508141056 69 44 5.2 10.4 0.00 0.00 0.00 86 1011.7
20260508140955 69 39 6.1 10.4 0.00 0.00 0.00 86 1011.8
20260508140854 69 30 6.1 10.4 0.00 0.00 0.00 86 1011.7
20260508140752 69 38 7.0 10.4 0.00 0.00 0.00 86 1011.7
20260508140652 69 17 7.8 10.4 0.00 0.00 0.00 86 1011.8
20260508140549 69 32 6.1 8.7 0.00 0.00 0.00 85 1011.7
20260508140446 69 37 5.2 8.7 0.00 0.00 0.00 86 1011.8
20260508140345 69 25 3.5 7.8 0.00 0.00 0.00 85 1011.8
20260508140244 69 66 4.3 7.8 0.00 0.00 0.00 85 1011.8
20260508140143 69 56 4.3 7.8 0.00 0.00 0.00 85 1011.8
20260508140043 69 68 5.2 7.8 0.00 0.00 0.00 85 1011.7
20260508135941 69 65 3.5 6.1 0.00 0.00 0.00 85 1011.6
20260508135841 69 31 2.6 6.1 0.00 0.00 0.00 86 1011.6
20260508135742 69 32 3.5 6.1 0.00 0.00 0.00 86 1011.5
20260508135641 69 11 2.6 6.1 0.00 0.00 0.00 86 1011.4
20260508135542 69 0 2.6 6.1 0.00 0.00 0.00 86 1011.5
20260508135442 69 0 4.3 6.1 0.00 0.00 0.00 85 1011.4
20260508135342 69 32 5.2 6.1 0.00 0.00 0.00 85 1011.3
20260508135242 69 31 5.2 6.1 0.00 0.00 0.00 85 1011.4
20260508135143 69 44 3.5 6.1 0.00 0.00 0.00 85 1011.4
20260508135041 69 11 2.6 6.1 0.00 0.00 0.00 85 1011.4
20260508134941 69 14 3.5 6.1 0.00 0.00 0.00 85 1011.4
20260508134842 69 1 4.3 6.1 0.00 0.00 0.00 85 1011.3
20260508134741 69 14 3.5 5.2 0.00 0.00 0.00 85 1011.3
20260508134641 69 6 3.5 4.3 0.00 0.00 0.00 85 1011.4
20260508134542 69 0 2.6 4.3 0.00 0.00 0.00 85 1011.4
20260508134441 69 351 2.6 4.3 0.00 0.00 0.00 85 1011.4
20260508134342 69 3 1.7 3.5 0.00 0.00 0.00 85 1011.5
20260508134241 69 3 2.6 3.5 0.00 0.00 0.00 85 1011.4
20260508134142 69 10 1.7 3.5 0.00 0.00 0.00 85 1011.4
20260508134040 69 11 1.7 3.5 0.00 0.00 0.00 84 1011.3
20260508133941 69 44 1.7 3.5 0.00 0.00 0.00 84 1011.4
20260508133842 69 45 0.9 3.5 0.00 0.00 0.00 85 1011.3
20260508133741 69 162 0.9 4.3 0.00 0.00 0.00 84 1011.3
20260508133641 69 100 0.9 4.3 0.00 0.00 0.00 85 1011.3
20260508133541 69 100 1.7 4.3 0.00 0.00 0.00 85 1011.2
20260508133442 69 100 1.7 4.3 0.00 0.00 0.00 85 1011.3
20260508133341 69 100 1.7 4.3 0.00 0.00 0.00 85 1011.2
20260508133240 69 107 1.7 4.3 0.00 0.00 0.00 85 1011.2
20260508133142 69 20 1.7 4.3 0.00 0.00 0.00 85 1011.2
20260508133042 69 18 1.7 6.1 0.00 0.00 0.00 85 1011.1
20260508132942 69 18 2.6 6.1 0.00 0.00 0.00 85 1011.1
20260508132841 69 17 2.6 6.1 0.00 0.00 0.00 85 1011.1
20260508132741 69 13 1.7 8.7 0.00 0.00 0.00 85 1011.0
20260508132640 69 14 2.6 8.7 0.00 0.00 0.00 85 1011.0
20260508132540 69 14 2.6 8.7 0.00 0.00 0.00 85 1011.0
20260508132441 69 13 3.5 8.7 0.00 0.00 0.00 85 1011.0
20260508132340 69 20 3.5 8.7 0.00 0.00 0.00 85 1011.1
20260508132240 69 14 3.5 8.7 0.00 0.00 0.00 85 1011.0
20260508132140 69 17 4.3 8.7 0.00 0.00 0.00 85 1010.9
20260508132041 69 21 4.3 8.7 0.00 0.00 0.00 85 1010.9
20260508131940 69 20 5.2 8.7 0.00 0.00 0.00 85 1010.9
20260508131841 69 21 6.1 8.7 0.00 0.00 0.00 85 1010.9
20260508131740 69 21 6.1 8.7 0.00 0.00 0.00 85 1010.8
20260508131641 69 17 5.2 8.7 0.00 0.00 0.00 85 1010.8
20260508131540 68 16 5.2 8.7 0.00 0.00 0.00 85 1010.8
20260508131440 68 20 5.2 8.7 0.00 0.00 0.00 85 1010.9
20260508131341 68 20 5.2 8.7 0.00 0.00 0.00 85 1010.9
20260508131240 68 20 5.2 8.7 0.00 0.00 0.00 85 1010.9
20260508131140 68 18 6.1 8.7 0.00 0.00 0.00 85 1010.9
20260508131041 68 18 7.0 8.7 0.00 0.00 0.00 85 1011.0
20260508130940 68 17 6.1 8.7 0.00 0.00 0.00 85 1011.0
20260508130841 68 28 5.2 7.8 0.00 0.00 0.00 85 1011.0
20260508130742 68 14 5.2 7.8 0.00 0.00 0.00 85 1011.1
20260508130640 68 18 5.2 7.8 0.00 0.00 0.00 85 1011.1
20260508130541 68 17 4.3 7.8 0.00 0.00 0.00 85 1011.1
20260508130440 68 20 4.3 7.8 0.00 0.00 0.00 85 1011.1
20260508130342 68 17 5.2 7.8 0.00 0.00 0.00 84 1011.2
20260508130241 68 18 5.2 7.8 0.00 0.00 0.00 85 1011.2
20260508130141 68 16 4.3 6.1 0.00 0.00 0.00 85 1011.2
20260508130041 68 14 4.3 6.1 0.00 0.00 0.00 84 1011.2
20260508125940 68 14 4.3 6.1 0.00 0.00 0.00 84 1011.1
20260508125841 68 16 3.5 6.1 0.00 0.00 0.00 85 1011.1
20260508125740 68 18 3.5 6.1 0.00 0.00 0.00 84 1011.1
20260508125640 68 16 4.3 6.1 0.00 0.00 0.00 84 1011.2
20260508125541 68 16 3.5 6.1 0.00 0.00 0.00 84 1011.2
20260508125441 68 6 1.7 5.2 0.00 0.00 0.00 84 1011.3
20260508125342 69 4 1.7 5.2 0.00 0.00 0.00 85 1011.3
20260508125239 69 3 0.9 5.2 0.00 0.00 0.00 85 1011.3
20260508125139 68 3 0.0 5.2 0.00 0.00 0.00 85 1011.3
20260508125040 68 8 0.9 5.2 0.00 0.00 0.00 85 1011.3
20260508124941 68 8 2.6 6.1 0.00 0.00 0.00 85 1011.2
20260508124840 68 8 2.6 6.1 0.00 0.00 0.00 85 1011.2
20260508124739 68 8 2.6 6.1 0.00 0.00 0.00 85 1011.1
20260508124639 68 10 3.5 6.1 0.00 0.00 0.00 85 1011.0
20260508124539 68 13 3.5 6.1 0.00 0.00 0.00 85 1011.0
20260508124441 68 7 4.3 6.1 0.00 0.00 0.00 85 1010.9
20260508124340 68 10 4.3 6.1 0.00 0.00 0.00 85 1010.9
20260508124240 68 6 4.3 6.1 0.00 0.00 0.00 85 1010.9
20260508124140 68 7 4.3 6.1 0.00 0.00 0.00 85 1010.9
20260508124039 68 7 3.5 6.1 0.00 0.00 0.00 85 1011.0
20260508123939 68 8 2.6 6.1 0.00 0.00 0.00 85 1011.0
20260508123839 68 4 2.6 6.1 0.00 0.00 0.00 85 1010.9
20260508123740 68 4 3.5 6.1 0.00 0.00 0.00 85 1011.0
20260508123640 68 0 3.5 6.1 0.00 0.00 0.00 85 1010.9
20260508123540 68 1 3.5 6.1 0.00 0.00 0.00 86 1011.0
20260508123439 68 1 2.6 6.1 0.00 0.00 0.00 86 1011.0
20260508123339 68 6 3.5 6.1 0.00 0.00 0.00 85 1011.0
20260508123240 68 7 3.5 6.1 0.00 0.00 0.00 85 1011.0
20260508123139 68 7 3.5 6.1 0.00 0.00 0.00 85 1011.0
20260508123040 68 3 2.6 6.1 0.00 0.00 0.00 85 1011.0
20260508122939 68 1 1.7 6.1 0.00 0.00 0.00 85 1011.1
20260508122839 68 6 3.5 6.1 0.00 0.00 0.00 85 1011.1
20260508122739 68 6 3.5 6.1 0.00 0.00 0.00 85 1011.1
20260508122639 68 3 3.5 5.2 0.00 0.00 0.00 85 1011.2
20260508122540 68 0 2.6 5.2 0.00 0.00 0.00 85 1011.3
20260508122440 68 0 3.5 5.2 0.00 0.00 0.00 85 1011.3
20260508122340 68 0 3.5 6.1 0.00 0.00 0.00 85 1011.2
20260508122240 68 1 2.6 6.1 0.00 0.00 0.00 85 1011.4
20260508122140 68 0 2.6 6.1 0.00 0.00 0.00 85 1011.4
20260508122039 68 0 2.6 6.1 0.00 0.00 0.00 85 1011.4
20260508121939 68 0 2.6 6.1 0.00 0.00 0.00 85 1011.4
20260508121840 68 0 2.6 6.1 0.00 0.00 0.00 85 1011.5
20260508121739 68 0 2.6 6.1 0.00 0.00 0.00 85 1011.5
20260508121639 68 3 3.5 6.1 0.00 0.00 0.00 85 1011.5
20260508121539 68 0 3.5 6.1 0.00 0.00 0.00 85 1011.5
20260508121439 68 4 3.5 6.1 0.00 0.00 0.00 85 1011.5
20260508121339 68 3 2.6 4.3 0.00 0.00 0.00 85 1011.5
20260508121240 68 4 2.6 4.3 0.00 0.00 0.00 85 1011.4
20260508121140 68 4 2.6 4.3 0.00 0.00 0.00 85 1011.4
20260508121038 68 4 2.6 4.3 0.00 0.00 0.00 85 1011.5
20260508120939 68 6 2.6 4.3 0.00 0.00 0.00 85 1011.5
20260508120840 68 7 1.7 3.5 0.00 0.00 0.00 85 1011.6
20260508120739 68 8 1.7 3.5 0.00 0.00 0.00 85 1011.6
20260508120639 68 1 1.7 4.3 0.00 0.00 0.00 85 1011.6
20260508120541 68 1 1.7 4.3 0.00 0.00 0.00 85 1011.6
20260508120440 68 1 1.7 6.1 0.00 0.00 0.00 85 1011.5
20260508120339 68 1 1.7 6.1 0.00 0.00 0.00 85 1011.5
20260508120239 68 0 1.7 6.1 0.00 0.00 0.00 85 1011.5
20260508120141 68 0 1.7 6.1 0.00 0.00 0.00 85 1011.5
20260508120040 68 0 1.7 6.1 0.00 0.00 0.00 85 1011.5
20260508115939 68 0 1.7 6.1 0.00 0.00 0.00 85 1011.4
20260508115840 68 3 2.6 6.1 0.00 0.00 0.00 85 1011.4
20260508115740 68 7 3.5 6.1 0.00 0.00 0.00 85 1011.4
20260508115639 68 7 4.3 6.1 0.00 0.00 0.00 85 1011.3
20260508115539 68 10 4.3 6.1 0.00 0.00 0.00 85 1011.4
20260508115438 68 8 4.3 6.1 0.00 0.00 0.00 85 1011.4
20260508115339 68 8 4.3 6.1 0.00 0.00 0.00 85 1011.4
20260508115238 68 4 3.5 6.1 0.00 0.00 0.00 85 1011.4
20260508115138 68 6 3.5 6.1 0.00 0.00 0.00 85 1011.4
20260508115039 68 6 2.6 6.1 0.00 0.00 0.00 85 1011.4
20260508114938 68 10 2.6 6.1 0.00 0.00 0.00 85 1011.4
20260508114838 68 4 3.5 6.1 0.00 0.00 0.00 85 1011.4
20260508114739 68 6 3.5 6.1 0.00 0.00 0.00 85 1011.3
20260508114639 68 1 3.5 6.1 0.00 0.00 0.00 85 1011.4
20260508114539 68 6 2.6 6.1 0.00 0.00 0.00 85 1011.4
20260508114438 68 4 2.6 6.1 0.00 0.00 0.00 85 1011.4
20260508114340 68 13 3.5 6.1 0.00 0.00 0.00 85 1011.4
20260508114238 68 14 4.3 6.1 0.00 0.00 0.00 85 1011.3
20260508114138 68 14 4.3 6.1 0.00 0.00 0.00 85 1011.4
20260508114040 68 8 4.3 6.1 0.00 0.00 0.00 85 1011.5
20260508113939 68 11 3.5 6.1 0.00 0.00 0.00 85 1011.6
20260508113839 68 11 3.5 6.1 0.00 0.00 0.00 85 1011.6
20260508113738 68 10 2.6 6.1 0.00 0.00 0.00 85 1011.6
20260508113640 68 11 1.7 6.1 0.00 0.00 0.00 85 1011.6
20260508113540 68 13 2.6 6.1 0.00 0.00 0.00 85 1011.7
20260508113438 68 13 2.6 6.1 0.00 0.00 0.00 85 1011.7
20260508113339 68 11 2.6 6.1 0.00 0.00 0.00 85 1011.8
20260508113239 68 8 3.5 6.1 0.00 0.00 0.00 85 1011.8
20260508113138 68 11 4.3 6.1 0.00 0.00 0.00 85 1011.8
20260508113039 68 13 3.5 6.1 0.00 0.00 0.00 85 1011.7
20260508112939 68 6 1.7 5.2 0.00 0.00 0.00 85 1011.6
20260508112837 68 4 2.6 5.2 0.00 0.00 0.00 85 1011.6
20260508112738 68 4 3.5 5.2 0.00 0.00 0.00 85 1011.6
20260508112640 68 6 3.5 4.3 0.00 0.00 0.00 85 1011.5
20260508112538 68 10 3.5 5.2 0.00 0.00 0.00 85 1011.5
20260508112440 68 8 2.6 5.2 0.00 0.00 0.00 85 1011.6
20260508112340 68 0 1.7 5.2 0.00 0.00 0.00 85 1011.6
20260508112239 68 0 2.6 5.2 0.00 0.00 0.00 85 1011.6
20260508112138 68 0 2.6 6.1 0.00 0.00 0.00 85 1011.6
20260508112037 68 0 1.7 7.8 0.00 0.00 0.00 85 1011.4
20260508111934 68 0 2.6 7.8 0.00 0.00 0.00 85 1011.3
20260508111834 68 1 2.6 7.8 0.00 0.00 0.00 85 1011.3
20260508111732 68 7 2.6 7.8 0.00 0.00 0.00 85 1011.1
20260508111632 68 13 2.6 7.8 0.00 0.00 0.00 85 1010.9
20260508111532 68 11 2.6 7.8 0.00 0.00 0.00 85 1010.8
20260508111431 68 11 3.5 7.8 0.00 0.00 0.00 85 1010.7
20260508111332 68 13 4.3 7.8 0.00 0.00 0.00 85 1010.6
20260508111231 68 8 4.3 7.8 0.00 0.00 0.00 85 1010.6
20260508111131 68 13 5.2 7.8 0.00 0.00 0.00 85 1010.6
20260508111031 68 14 5.2 7.8 0.00 0.00 0.00 85 1010.6
20260508110931 68 13 4.3 7.8 0.00 0.00 0.00 85 1010.6
20260508110832 68 11 3.5 8.7 0.00 0.00 0.00 85 1010.6
20260508110732 68 14 4.3 8.7 0.00 0.00 0.00 85 1010.6
20260508110632 68 18 3.5 8.7 0.00 0.00 0.00 85 1010.6
20260508110531 68 11 3.5 8.7 0.00 0.00 0.00 85 1010.7
20260508110431 68 11 4.3 8.7 0.00 0.00 0.00 85 1010.6
20260508110332 68 10 5.2 8.7 0.00 0.00 0.00 85 1010.7
20260508110232 68 14 4.3 8.7 0.00 0.00 0.00 85 1010.7
20260508110131 68 13 4.3 8.7 0.00 0.00 0.00 86 1010.7
20260508110031 68 17 5.2 8.7 0.00 0.00 0.00 86 1010.7
20260508105931 68 18 6.1 8.7 0.00 0.00 0.00 86 1010.7
20260508105832 68 18 6.1 7.8 0.00 0.00 0.00 86 1010.7
20260508105731 68 13 6.1 7.8 0.00 0.00 0.00 86 1010.7
20260508105626 68 11 5.2 7.8 0.00 0.00 0.00 86 1010.7
20260508105525 68 16 4.3 6.1 0.00 0.00 0.00 86 1010.8
20260508105425 68 17 4.3 6.1 0.00 0.00 0.00 86 1010.8
20260508105323 68 13 4.3 6.1 0.00 0.00 0.00 86 1010.9
20260508105214 68 14 3.5 6.1 0.00 0.00 0.00 86 1010.9
20260508105114 68 10 3.5 6.1 0.00 0.00 0.00 86 1011.0
20260508105011 68 11 3.5 6.1 0.00 0.00 0.00 86 1011.0
20260508104910 68 7 3.5 6.1 0.00 0.00 0.00 86 1011.0
20260508104809 68 8 5.2 6.1 0.00 0.00 0.00 86 1011.0
20260508104709 68 11 4.3 6.1 0.00 0.00 0.00 86 1011.1
20260508104606 68 8 4.3 6.1 0.00 0.00 0.00 86 1011.1
20260508104506 68 10 4.3 6.1 0.00 0.00 0.00 86 1011.1
20260508104402 68 6 5.2 6.1 0.00 0.00 0.00 86 1011.1
20260508104302 68 7 5.2 6.1 0.00 0.00 0.00 86 1011.1
20260508104203 68 7 4.3 6.1 0.00 0.00 0.00 86 1011.3
20260508104102 68 6 3.5 6.1 0.00 0.00 0.00 87 1011.3
20260508104003 68 4 3.5 5.2 0.00 0.00 0.00 86 1011.4
20260508103902 68 0 4.3 5.2 0.00 0.00 0.00 87 1011.3
20260508103803 68 0 3.5 5.2 0.00 0.00 0.00 87 1011.3
20260508103702 68 1 2.6 5.2 0.00 0.00 0.00 87 1011.3
20260508103602 68 0 2.6 5.2 0.00 0.00 0.00 87 1011.4
20260508103503 68 0 2.6 5.2 0.00 0.00 0.00 87 1011.4
20260508103403 68 0 2.6 5.2 0.00 0.00 0.00 87 1011.4
20260508103301 68 3 3.5 5.2 0.00 0.00 0.00 87 1011.4
20260508103202 68 3 3.5 7.8 0.00 0.00 0.00 87 1011.5
20260508103103 68 6 2.6 7.8 0.00 0.00 0.00 87 1011.4
20260508103002 68 6 2.6 7.8 0.00 0.00 0.00 86 1011.3
20260508102902 68 8 3.5 7.8 0.00 0.00 0.00 86 1011.2
20260508102803 68 11 3.5 8.7 0.00 0.00 0.00 86 1011.0
20260508102701 68 8 4.3 8.7 0.00 0.00 0.00 86 1011.0
20260508102603 68 13 4.3 8.7 0.00 0.00 0.00 86 1011.0
20260508102503 68 13 4.3 8.7 0.00 0.00 0.00 86 1010.9
20260508102403 68 13 4.3 8.7 0.00 0.00 0.00 86 1010.9
20260508102306 68 13 4.3 8.7 0.00 0.00 0.00 86 1010.7
20260508102202 68 10 5.2 8.7 0.00 0.00 0.00 86 1010.6
20260508102103 68 14 5.2 8.7 0.00 0.00 0.00 86 1010.6
20260508102004 68 16 5.2 8.7 0.00 0.00 0.00 86 1010.5
20260508101903 68 8 5.2 9.6 0.00 0.00 0.00 86 1010.6
20260508101803 68 10 5.2 9.6 0.00 0.00 0.00 86 1010.6
20260508101702 68 6 6.1 9.6 0.00 0.00 0.00 86 1010.5
20260508101603 68 13 5.2 9.6 0.00 0.00 0.00 86 1010.5
20260508101502 68 4 4.3 9.6 0.00 0.00 0.00 86 1010.5
20260508101403 68 13 4.3 9.6 0.00 0.00 0.00 86 1010.5
20260508101303 68 10 4.3 9.6 0.00 0.00 0.00 86 1010.7
20260508101202 68 16 4.3 9.6 0.00 0.00 0.00 86 1010.7
20260508101103 68 10 5.2 9.6 0.00 0.00 0.00 86 1010.7
20260508101003 68 11 6.1 9.6 0.00 0.00 0.00 86 1010.6
20260508100902 68 10 5.2 8.7 0.00 0.00 0.00 86 1010.7
20260508100802 68 11 4.3 8.7 0.00 0.00 0.00 86 1010.8
20260508100704 68 8 3.5 8.7 0.00 0.00 0.00 86 1010.9
20260508100602 68 7 3.5 8.7 0.00 0.00 0.00 86 1011.0
20260508100502 68 0 3.5 8.7 0.00 0.00 0.00 86 1011.1
20260508100403 68 11 5.2 8.7 0.00 0.00 0.00 86 1011.1
20260508100302 68 10 5.2 8.7 0.00 0.00 0.00 86 1011.1
20260508100202 68 4 5.2 8.7 0.00 0.00 0.00 86 1011.2
20260508100103 68 8 5.2 8.7 0.00 0.00 0.00 86 1011.1
20260508100003 68 6 4.3 8.7 0.00 0.00 0.00 86 1011.2
20260508095902 68 11 4.3 8.7 0.00 0.00 0.00 87 1011.2
20260508095802 68 8 4.3 8.7 0.00 0.00 0.00 86 1011.3
20260508095702 68 6 4.3 8.7 0.00 0.00 0.00 86 1011.3
20260508095602 68 6 5.2 8.7 0.00 0.00 0.00 86 1011.3
20260508095502 68 4 4.3 8.7 0.00 0.00 0.00 86 1011.4
20260508095403 68 0 3.5 8.7 0.00 0.00 0.00 87 1011.3
20260508095306 68 1 3.5 8.7 0.00 0.00 0.00 87 1011.3
20260508095203 68 3 4.3 6.1 0.00 0.00 0.00 86 1011.3
20260508095102 68 7 4.3 6.1 0.00 0.00 0.00 86 1011.3
20260508095003 68 4 3.5 6.1 0.00 0.00 0.00 86 1011.3
20260508094903 68 4 3.5 8.7 0.00 0.00 0.00 86 1011.3
20260508094802 68 0 2.6 8.7 0.00 0.00 0.00 86 1011.3
20260508094703 68 0 1.7 8.7 0.00 0.00 0.00 86 1011.3
20260508094604 68 0 2.6 8.7 0.00 0.00 0.00 86 1011.3
20260508094503 68 0 2.6 8.7 0.00 0.00 0.00 86 1011.4
20260508094402 68 0 2.6 8.7 0.00 0.00 0.00 86 1011.4
20260508094303 68 0 2.6 8.7 0.00 0.00 0.00 86 1011.4
20260508094203 68 0 3.5 8.7 0.00 0.00 0.00 86 1011.4
20260508094103 68 4 4.3 8.7 0.00 0.00 0.00 86 1011.3
20260508094004 68 3 4.3 8.7 0.00 0.00 0.00 86 1011.2
20260508093903 68 0 3.5 7.8 0.00 0.00 0.00 86 1011.1
20260508093803 68 7 3.5 10.4 0.00 0.00 0.00 86 1011.1
20260508093704 68 4 4.3 10.4 0.00 0.00 0.00 86 1010.9
20260508093602 68 13 3.5 10.4 0.00 0.00 0.00 86 1010.8
20260508093502 68 7 3.5 10.4 0.00 0.00 0.00 86 1010.6
20260508093403 68 11 4.3 10.4 0.00 0.00 0.00 86 1010.6
20260508093303 68 16 4.3 10.4 0.00 0.00 0.00 86 1010.5
20260508093202 68 17 5.2 10.4 0.00 0.00 0.00 86 1010.6
20260508093102 68 13 5.2 10.4 0.00 0.00 0.00 86 1010.6
20260508093005 68 13 5.2 12.2 0.00 0.00 0.00 86 1010.6
20260508092903 68 14 7.0 12.2 0.00 0.00 0.00 86 1010.6
20260508092803 68 16 7.0 12.2 0.00 0.00 0.00 86 1010.5
20260508092702 68 17 7.8 12.2 0.00 0.00 0.00 86 1010.5
20260508092602 68 14 7.0 12.2 0.00 0.00 0.00 86 1010.5
20260508092503 68 10 6.1 12.2 0.00 0.00 0.00 86 1010.5
20260508092401 68 17 5.2 12.2 0.00 0.00 0.00 86 1010.5
20260508092312 68 14 6.1 12.2 0.00 0.00 0.00 86 1010.5
20260508092202 68 16 8.7 12.2 0.00 0.00 0.00 86 1010.4
20260508092101 68 18 8.7 12.2 0.00 0.00 0.00 86 1010.3
20260508092003 68 13 7.8 11.3 0.00 0.00 0.00 86 1010.4
20260508091903 68 18 7.8 11.3 0.00 0.00 0.00 86 1010.5
20260508091802 68 16 7.8 11.3 0.00 0.00 0.00 86 1010.6
20260508091702 68 10 6.1 9.6 0.00 0.00 0.00 86 1010.6
20260508091604 68 11 4.3 7.8 0.00 0.00 0.00 86 1010.6
20260508091502 68 11 3.5 7.8 0.00 0.00 0.00 86 1010.7
20260508091401 68 8 3.5 7.8 0.00 0.00 0.00 86 1010.8
20260508091300 68 8 4.3 7.8 0.00 0.00 0.00 86 1010.8
20260508091159 68 7 3.5 7.8 0.00 0.00 0.00 86 1010.8
20260508091056 68 7 3.5 7.8 0.00 0.00 0.00 86 1010.8
20260508090955 68 8 4.3 7.8 0.00 0.00 0.00 85 1010.8
20260508090852 68 7 5.2 7.8 0.00 0.00 0.00 85 1010.8
20260508090751 68 8 4.3 7.8 0.00 0.00 0.00 85 1010.8
20260508090649 68 6 4.3 6.1 0.00 0.00 0.00 85 1010.7
20260508090549 68 6 4.3 6.1 0.00 0.00 0.00 85 1010.7
20260508090446 68 8 4.3 6.1 0.00 0.00 0.00 85 1010.7
20260508090342 68 8 4.3 6.1 0.00 0.00 0.00 85 1010.9
20260508090239 68 8 5.2 6.1 0.00 0.00 0.00 85 1010.9
20260508090138 68 7 4.3 6.1 0.00 0.00 0.00 85 1011.0
20260508090039 68 7 4.3 6.1 0.00 0.00 0.00 85 1011.0
20260508085935 68 14 3.5 6.1 0.00 0.00 0.00 85 1011.1
20260508085835 68 11 3.5 6.1 0.00 0.00 0.00 85 1011.1
20260508085736 68 13 3.5 6.1 0.00 0.00 0.00 85 1011.1
20260508085634 68 13 4.3 6.1 0.00 0.00 0.00 85 1011.1
20260508085534 68 11 5.2 6.1 0.00 0.00 0.00 85 1011.1
20260508085434 68 11 4.3 5.2 0.00 0.00 0.00 85 1011.1
20260508085335 68 7 3.5 5.2 0.00 0.00 0.00 85 1011.2
20260508085234 68 10 2.6 5.2 0.00 0.00 0.00 85 1011.1
20260508085134 68 8 3.5 5.2 0.00 0.00 0.00 85 1011.0
20260508085035 68 8 4.3 5.2 0.00 0.00 0.00 85 1011.0
20260508084934 68 8 4.3 5.2 0.00 0.00 0.00 85 1011.0
20260508084835 68 6 3.5 5.2 0.00 0.00 0.00 85 1011.0
20260508084735 68 10 3.5 5.2 0.00 0.00 0.00 85 1011.0
20260508084635 68 8 3.5 5.2 0.00 0.00 0.00 85 1011.1
20260508084534 68 11 3.5 5.2 0.00 0.00 0.00 85 1011.1
20260508084434 68 6 3.5 5.2 0.00 0.00 0.00 85 1011.1
20260508084335 68 10 3.5 5.2 0.00 0.00 0.00 85 1011.1
20260508084234 68 10 3.5 5.2 0.00 0.00 0.00 85 1011.1
20260508084135 68 10 3.5 5.2 0.00 0.00 0.00 85 1011.2
20260508084035 68 10 3.5 5.2 0.00 0.00 0.00 85 1011.2
20260508083935 68 8 2.6 5.2 0.00 0.00 0.00 85 1011.2
20260508083834 68 11 2.6 5.2 0.00 0.00 0.00 85 1011.2
20260508083734 68 7 2.6 5.2 0.00 0.00 0.00 85 1011.3
20260508083635 68 8 3.5 5.2 0.00 0.00 0.00 85 1011.2
20260508083534 68 7 3.5 5.2 0.00 0.00 0.00 85 1011.3
20260508083435 68 4 2.6 5.2 0.00 0.00 0.00 85 1011.3
20260508083334 68 4 2.6 5.2 0.00 0.00 0.00 85 1011.3
20260508083233 68 4 2.6 6.1 0.00 0.00 0.00 85 1011.3
20260508083136 68 3 2.6 6.1 0.00 0.00 0.00 85 1011.3
20260508083032 68 3 2.6 8.7 0.00 0.00 0.00 85 1011.2
20260508082931 68 3 3.5 8.7 0.00 0.00 0.00 84 1011.3
20260508082831 68 3 3.5 8.7 0.00 0.00 0.00 84 1011.2
20260508082732 68 3 4.3 8.7 0.00 0.00 0.00 84 1011.3
20260508082631 68 6 3.5 8.7 0.00 0.00 0.00 84 1011.2
20260508082530 68 4 3.5 8.7 0.00 0.00 0.00 84 1011.2
20260508082431 68 6 4.3 8.7 0.00 0.00 0.00 84 1011.2
20260508082332 68 4 5.2 8.7 0.00 0.00 0.00 84 1011.1
20260508082230 68 6 5.2 9.6 0.00 0.00 0.00 84 1011.1
20260508082128 68 7 4.3 9.6 0.00 0.00 0.00 84 1011.1
20260508082023 68 6 4.3 9.6 0.00 0.00 0.00 84 1011.0
20260508081921 68 8 4.3 9.6 0.00 0.00 0.00 84 1011.0
20260508081821 68 6 4.3 9.6 0.00 0.00 0.00 84 1011.0
20260508081718 68 7 5.2 10.4 0.00 0.00 0.00 84 1010.9
20260508081617 68 8 5.2 10.4 0.00 0.00 0.00 84 1011.0
20260508081516 68 4 4.3 10.4 0.00 0.00 0.00 84 1010.9
20260508081415 68 10 5.2 10.4 0.00 0.00 0.00 84 1010.9
20260508081313 68 6 7.0 10.4 0.00 0.00 0.00 84 1010.9
20260508081210 68 7 6.1 10.4 0.00 0.00 0.00 84 1010.9
20260508081108 68 7 5.2 10.4 0.00 0.00 0.00 84 1010.9
20260508081007 68 6 6.1 10.4 0.00 0.00 0.00 84 1010.9
20260508080903 68 11 7.8 10.4 0.00 0.00 0.00 84 1010.8
20260508080804 68 7 7.0 10.4 0.00 0.00 0.00 84 1010.9
20260508080704 68 8 7.0 9.6 0.00 0.00 0.00 84 1011.0
20260508080602 68 6 7.0 9.6 0.00 0.00 0.00 84 1010.9
20260508080504 68 3 7.0 9.6 0.00 0.00 0.00 84 1010.9
20260508080403 68 7 6.1 9.6 0.00 0.00 0.00 84 1011.0
20260508080303 68 7 5.2 9.6 0.00 0.00 0.00 84 1011.1
20260508080203 68 8 5.2 9.6 0.00 0.00 0.00 84 1011.2
20260508080002 68 6 4.3 7.8 0.00 0.00 0.00 84 1011.2
20260508075903 68 7 4.3 7.8 0.00 0.00 0.00 84 1011.3
20260508075804 68 0 4.3 7.8 0.00 0.00 0.00 84 1011.4
20260508075702 68 0 3.5 6.1 0.00 0.00 0.00 84 1011.4
20260508075602 68 6 3.5 6.1 0.00 0.00 0.00 84 1011.5
20260508075503 68 0 3.5 6.1 0.00 0.00 0.00 84 1011.5
20260508075403 68 3 3.5 6.1 0.00 0.00 0.00 84 1011.5
20260508075301 68 3 3.5 6.1 0.00 0.00 0.00 84 1011.5
20260508075203 68 0 2.6 6.1 0.00 0.00 0.00 84 1011.4
20260508075103 68 6 2.6 7.8 0.00 0.00 0.00 84 1011.5
20260508075004 68 4 2.6 7.8 0.00 0.00 0.00 84 1011.4
20260508074902 68 4 3.5 7.8 0.00 0.00 0.00 84 1011.4
20260508074802 68 6 3.5 7.8 0.00 0.00 0.00 84 1011.4
20260508074703 68 3 3.5 7.8 0.00 0.00 0.00 83 1011.4
20260508074602 68 4 4.3 7.8 0.00 0.00 0.00 84 1011.3
20260508074503 68 4 4.3 7.8 0.00 0.00 0.00 84 1011.4
20260508074403 68 0 3.5 7.8 0.00 0.00 0.00 84 1011.4
20260508074302 68 3 3.5 7.8 0.00 0.00 0.00 84 1011.4
20260508074202 68 0 3.5 7.8 0.00 0.00 0.00 84 1011.5
20260508074103 68 3 2.6 7.8 0.00 0.00 0.00 84 1011.5
20260508074004 68 4 1.7 7.8 0.00 0.00 0.00 84 1011.6
20260508073902 68 0 2.6 7.8 0.00 0.00 0.00 84 1011.6
20260508073802 69 0 3.5 7.8 0.00 0.00 0.00 84 1011.6
20260508073704 68 6 4.3 7.8 0.00 0.00 0.00 84 1011.6
20260508073603 68 7 4.3 7.8 0.00 0.00 0.00 84 1011.7
20260508073505 68 3 3.5 7.8 0.00 0.00 0.00 83 1011.6
20260508073402 69 3 3.5 5.2 0.00 0.00 0.00 83 1011.7
20260508073302 69 3 3.5 5.2 0.00 0.00 0.00 83 1011.6
20260508073202 69 0 2.6 6.1 0.00 0.00 0.00 83 1011.6
20260508073102 69 0 2.6 6.1 0.00 0.00 0.00 83 1011.6
20260508073005 69 3 1.7 7.8 0.00 0.00 0.00 83 1011.6
20260508072902 69 0 2.6 7.8 0.00 0.00 0.00 83 1011.6
20260508072803 69 0 3.5 7.8 0.00 0.00 0.00 83 1011.5
20260508072703 69 7 3.5 7.8 0.00 0.00 0.00 83 1011.5
20260508072602 69 1 2.6 7.8 0.00 0.00 0.00 83 1011.5
20260508072502 69 0 2.6 7.8 0.00 0.00 0.00 83 1011.4
20260508072403 69 1 3.5 7.8 0.00 0.00 0.00 83 1011.5
20260508072307 69 0 3.5 7.8 0.00 0.00 0.00 83 1011.4
20260508072204 69 4 4.3 7.8 0.00 0.00 0.00 83 1011.4
20260508072103 69 0 4.3 7.8 0.00 0.00 0.00 83 1011.4
20260508072004 69 6 2.6 6.1 0.00 0.00 0.00 83 1011.3
20260508071903 69 0 3.5 6.1 0.00 0.00 0.00 83 1011.3
20260508071802 69 4 4.3 6.1 0.00 0.00 0.00 83 1011.3
20260508071703 69 7 3.5 6.1 0.00 0.00 0.00 83 1011.3
20260508071602 69 6 3.5 5.2 0.00 0.00 0.00 83 1011.3
20260508071502 69 6 3.5 5.2 0.00 0.00 0.00 83 1011.3
20260508071402 69 7 3.5 5.2 0.00 0.00 0.00 83 1011.4
20260508071302 69 3 1.7 7.8 0.00 0.00 0.00 83 1011.4
20260508071202 69 1 1.7 7.8 0.00 0.00 0.00 83 1011.5
20260508071104 69 1 2.6 7.8 0.00 0.00 0.00 84 1011.5
20260508071003 69 1 2.6 7.8 0.00 0.00 0.00 84 1011.5
20260508070902 69 10 2.6 7.8 0.00 0.00 0.00 84 1011.5
20260508070804 69 8 4.3 7.8 0.00 0.00 0.00 84 1011.4
20260508070704 69 8 4.3 7.8 0.00 0.00 0.00 84 1011.3
20260508070603 69 8 4.3 7.8 0.00 0.00 0.00 84 1011.3
20260508070504 69 8 4.3 7.8 0.00 0.00 0.00 84 1011.3
20260508070402 69 0 3.5 7.8 0.00 0.00 0.00 84 1011.3
20260508070304 69 3 1.7 4.3 0.00 0.00 0.00 84 1011.3
20260508070202 69 4 1.7 4.3 0.00 0.00 0.00 84 1011.4
20260508070105 69 4 1.7 4.3 0.00 0.00 0.00 84 1011.4
20260508070003 69 4 2.6 4.3 0.00 0.00 0.00 84 1011.4
20260508065902 69 4 3.5 4.3 0.00 0.00 0.00 84 1011.3
20260508065804 69 4 3.5 4.3 0.00 0.00 0.00 84 1011.3
20260508065704 69 7 3.5 4.3 0.00 0.00 0.00 84 1011.2
20260508065603 69 7 3.5 5.2 0.00 0.00 0.00 84 1011.3
20260508065505 69 7 3.5 5.2 0.00 0.00 0.00 84 1011.2
20260508065404 69 7 3.5 5.2 0.00 0.00 0.00 84 1011.3
20260508065306 69 7 3.5 5.2 0.00 0.00 0.00 84 1011.3
20260508065202 69 6 3.5 5.2 0.00 0.00 0.00 84 1011.4
20260508065103 69 8 3.5 5.2 0.00 0.00 0.00 83 1011.4
20260508065002 69 8 3.5 5.2 0.00 0.00 0.00 84 1011.4
20260508064904 69 7 3.5 5.2 0.00 0.00 0.00 84 1011.4
20260508064801 69 6 4.3 5.2 0.00 0.00 0.00 84 1011.5
20260508064702 69 7 4.3 5.2 0.00 0.00 0.00 84 1011.5
20260508064603 69 7 3.5 5.2 0.00 0.00 0.00 84 1011.5
20260508064503 69 10 2.6 4.3 0.00 0.00 0.00 84 1011.5
20260508064402 69 11 2.6 4.3 0.00 0.00 0.00 84 1011.5
20260508064303 69 11 2.6 4.3 0.00 0.00 0.00 84 1011.6
20260508064202 69 11 2.6 4.3 0.00 0.00 0.00 84 1011.5
20260508064102 69 4 1.7 4.3 0.00 0.00 0.00 84 1011.5
20260508064003 69 4 2.6 4.3 0.00 0.00 0.00 84 1011.4
20260508063904 69 7 2.6 4.3 0.00 0.00 0.00 83 1011.5
20260508063804 69 6 2.6 4.3 0.00 0.00 0.00 83 1011.5
20260508063703 69 4 2.6 4.3 0.00 0.00 0.00 83 1011.5
20260508063603 69 4 2.6 4.3 0.00 0.00 0.00 83 1011.6
20260508063503 69 4 2.6 4.3 0.00 0.00 0.00 83 1011.5
20260508063403 69 10 2.6 5.2 0.00 0.00 0.00 83 1011.6
20260508063303 69 10 2.6 6.1 0.00 0.00 0.00 83 1011.6
20260508063201 69 6 2.6 6.1 0.00 0.00 0.00 83 1011.6
20260508063102 69 8 1.7 6.1 0.00 0.00 0.00 83 1011.5
20260508063002 69 8 1.7 6.1 0.00 0.00 0.00 83 1011.5
20260508062904 69 11 1.7 6.1 0.00 0.00 0.00 83 1011.4
20260508062803 69 11 3.5 6.1 0.00 0.00 0.00 83 1011.4
20260508062701 69 13 3.5 6.1 0.00 0.00 0.00 83 1011.4
20260508062602 69 11 3.5 6.1 0.00 0.00 0.00 83 1011.4
20260508062504 69 13 4.3 6.1 0.00 0.00 0.00 83 1011.3
20260508062402 69 13 3.5 6.1 0.00 0.00 0.00 84 1011.3
20260508062306 69 17 3.5 5.2 0.00 0.00 0.00 83 1011.3
20260508062203 69 17 3.5 5.2 0.00 0.00 0.00 83 1011.3
20260508062102 69 14 3.5 4.3 0.00 0.00 0.00 84 1011.3
20260508062005 69 16 3.5 4.3 0.00 0.00 0.00 84 1011.4
20260508061903 69 16 3.5 4.3 0.00 0.00 0.00 84 1011.4
20260508061803 69 14 2.6 4.3 0.00 0.00 0.00 84 1011.5
20260508061701 69 13 2.6 4.3 0.00 0.00 0.00 84 1011.5
20260508061600 69 11 2.6 4.3 0.00 0.00 0.00 84 1011.6
20260508061459 69 13 1.7 4.3 0.00 0.00 0.00 84 1011.6
20260508061358 69 4 1.7 4.3 0.00 0.00 0.00 84 1011.7
20260508061245 69 4 2.6 4.3 0.00 0.00 0.00 84 1011.8
20260508061142 69 4 1.7 4.3 0.00 0.00 0.00 84 1011.8
20260508061042 69 1 0.9 3.5 0.00 0.00 0.00 84 1011.9
20260508060940 69 1 0.9 3.5 0.00 0.00 0.00 83 1012.0
20260508060835 69 1 0.0 3.5 0.00 0.00 0.00 83 1012.0
20260508060735 69 1 0.9 3.5 0.00 0.00 0.00 83 1012.1
20260508060632 69 1 0.9 3.5 0.00 0.00 0.00 83 1011.9
20260508060532 69 4 0.9 3.5 0.00 0.00 0.00 83 1011.9
20260508060432 69 4 0.9 3.5 0.00 0.00 0.00 83 1011.8
20260508060331 69 3 1.7 3.5 0.00 0.00 0.00 83 1011.7
20260508060231 69 4 1.7 4.3 0.00 0.00 0.00 83 1011.7
20260508060131 69 6 1.7 4.3 0.00 0.00 0.00 83 1011.7
20260508060032 69 1 1.7 4.3 0.00 0.00 0.00 83 1011.6
20260508055931 69 1 1.7 4.3 0.00 0.00 0.00 83 1011.7
20260508055831 69 4 1.7 4.3 0.00 0.00 0.00 83 1011.6
20260508055733 69 34 1.7 4.3 0.00 0.00 0.00 83 1011.7
20260508055631 69 34 2.6 4.3 0.00 0.00 0.00 83 1011.5
20260508055531 69 35 1.7 4.3 0.00 0.00 0.00 83 1011.5
20260508055432 69 35 2.6 4.3 0.00 0.00 0.00 82 1011.4
20260508055331 69 58 2.6 4.3 0.00 0.00 0.00 82 1011.3
20260508055231 69 58 1.7 4.3 0.00 0.00 0.00 82 1011.3
20260508055131 69 62 2.6 5.2 0.00 0.00 0.00 82 1011.2
20260508055032 69 61 2.6 5.2 0.00 0.00 0.00 82 1011.3
20260508054932 69 51 1.7 5.2 0.00 0.00 0.00 82 1011.3
20260508054831 69 48 1.7 5.2 0.00 0.00 0.00 82 1011.3
20260508054732 69 45 1.7 5.2 0.00 0.00 0.00 82 1011.3
20260508054632 69 45 2.6 5.2 0.00 0.00 0.00 82 1011.3
20260508054531 69 44 1.7 5.2 0.00 0.00 0.00 82 1011.4
20260508054432 69 42 2.6 5.2 0.00 0.00 0.00 82 1011.4
20260508054332 69 62 3.5 5.2 0.00 0.00 0.00 82 1011.5
20260508054231 69 58 2.6 5.2 0.00 0.00 0.00 82 1011.6
20260508054131 69 52 1.7 5.2 0.00 0.00 0.00 82 1011.4
20260508054032 69 54 2.6 5.2 0.00 0.00 0.00 82 1011.4
20260508053932 69 62 2.6 5.2 0.00 0.00 0.00 82 1011.4
20260508053831 69 68 3.5 5.2 0.00 0.00 0.00 82 1011.4
20260508053731 69 52 3.5 5.2 0.00 0.00 0.00 82 1011.5
20260508053631 69 39 2.6 5.2 0.00 0.00 0.00 82 1011.5
20260508053532 69 49 2.6 4.3 0.00 0.00 0.00 82 1011.5
20260508053432 69 51 3.5 4.3 0.00 0.00 0.00 82 1011.4
20260508053332 69 41 3.5 4.3 0.00 0.00 0.00 82 1011.5
20260508053232 69 37 2.6 4.3 0.00 0.00 0.00 82 1011.4
20260508053130 69 32 2.6 4.3 0.00 0.00 0.00 81 1011.5
20260508053031 70 32 1.7 5.2 0.00 0.00 0.00 81 1011.5
20260508052931 70 32 1.7 5.2 0.00 0.00 0.00 81 1011.5
20260508052830 70 32 1.7 5.2 0.00 0.00 0.00 81 1011.5
20260508052730 70 32 1.7 5.2 0.00 0.00 0.00 81 1011.4
20260508052631 70 21 2.6 5.2 0.00 0.00 0.00 81 1011.5
20260508052532 70 38 2.6 5.2 0.00 0.00 0.00 81 1011.4
20260508052429 70 35 2.6 5.2 0.00 0.00 0.00 81 1011.5
20260508052330 70 32 2.6 5.2 0.00 0.00 0.00 81 1011.4
20260508052232 70 35 3.5 5.2 0.00 0.00 0.00 81 1011.4
20260508052131 70 35 3.5 5.2 0.00 0.00 0.00 81 1011.4
20260508052029 70 39 2.6 5.2 0.00 0.00 0.00 81 1011.4
20260508051930 70 30 2.6 5.2 0.00 0.00 0.00 81 1011.4
20260508051831 70 37 2.6 5.2 0.00 0.00 0.00 81 1011.3
20260508051729 70 54 2.6 5.2 0.00 0.00 0.00 81 1011.3
20260508051629 70 55 1.7 5.2 0.00 0.00 0.00 81 1011.4
20260508051531 70 48 2.6 5.2 0.00 0.00 0.00 81 1011.3
20260508051431 70 83 1.7 5.2 0.00 0.00 0.00 81 1011.3
20260508051329 70 45 1.7 5.2 0.00 0.00 0.00 81 1011.3
20260508051230 70 39 3.5 5.2 0.00 0.00 0.00 81 1011.3
20260508051130 70 54 3.5 5.2 0.00 0.00 0.00 81 1011.3
20260508051029 70 45 3.5 5.2 0.00 0.00 0.00 80 1011.3
20260508050929 70 58 3.5 5.2 0.00 0.00 0.00 81 1011.4
20260508050832 70 59 3.5 4.3 0.00 0.00 0.00 80 1011.4
20260508050731 70 59 2.6 4.3 0.00 0.00 0.00 80 1011.5
20260508050629 70 31 2.6 4.3 0.00 0.00 0.00 80 1011.5
20260508050529 70 31 2.6 4.3 0.00 0.00 0.00 80 1011.6
20260508050431 70 42 2.6 4.3 0.00 0.00 0.00 80 1011.6
20260508050329 70 42 3.5 4.3 0.00 0.00 0.00 80 1011.6
20260508050230 70 35 3.5 4.3 0.00 0.00 0.00 80 1011.6
20260508050131 70 45 2.6 4.3 0.00 0.00 0.00 80 1011.6
20260508050030 70 45 2.6 4.3 0.00 0.00 0.00 80 1011.5
20260508045931 70 45 2.6 4.3 0.00 0.00 0.00 80 1011.4
20260508045806 70 59 2.6 4.3 0.00 0.00 0.00 80 1011.5
20260508045705 70 31 1.7 4.3 0.00 0.00 0.00 80 1011.4
20260508045603 70 31 1.7 4.3 0.00 0.00 0.00 80 1011.6
20260508045504 70 31 1.7 4.3 0.00 0.00 0.00 80 1011.6
20260508045402 70 31 1.7 5.2 0.00 0.00 0.00 80 1011.7
20260508045306 70 31 1.7 5.2 0.00 0.00 0.00 80 1011.6
20260508045203 70 31 1.7 5.2 0.00 0.00 0.00 80 1011.7
20260508045102 70 31 2.6 5.2 0.00 0.00 0.00 79 1011.7
20260508045003 71 31 2.6 5.2 0.00 0.00 0.00 79 1011.7
20260508044902 71 42 2.6 5.2 0.00 0.00 0.00 79 1011.6
20260508044802 71 31 2.6 5.2 0.00 0.00 0.00 79 1011.6
20260508044702 71 31 2.6 5.2 0.00 0.00 0.00 79 1011.5
20260508044603 71 30 3.5 7.8 0.00 0.00 0.00 79 1011.6
20260508044504 71 28 3.5 7.8 0.00 0.00 0.00 78 1011.7
20260508044403 71 34 3.5 7.8 0.00 0.00 0.00 78 1011.7
20260508044303 71 28 3.5 7.8 0.00 0.00 0.00 78 1011.7
20260508044203 71 34 4.3 8.7 0.00 0.00 0.00 78 1011.8
20260508044103 71 32 4.3 9.6 0.00 0.00 0.00 78 1011.8
20260508044004 71 31 3.5 9.6 0.00 0.00 0.00 78 1011.8
20260508043902 71 44 2.6 9.6 0.00 0.00 0.00 78 1011.8
20260508043802 71 63 3.5 9.6 0.00 0.00 0.00 78 1011.6
20260508043703 71 45 5.2 9.6 0.00 0.00 0.00 78 1011.6
20260508043603 71 56 5.2 9.6 0.00 0.00 0.00 78 1011.6
20260508043504 71 80 4.3 9.6 0.00 0.00 0.00 78 1011.6
20260508043402 71 65 5.2 9.6 0.00 0.00 0.00 78 1011.6
20260508043304 71 51 7.0 9.6 0.00 0.00 0.00 78 1011.7
20260508043203 71 103 6.1 9.6 0.00 0.00 0.00 79 1011.7
20260508043103 71 71 4.3 7.8 0.00 0.00 0.00 79 1011.7
20260508043002 71 90 3.5 7.8 0.00 0.00 0.00 79 1011.8
20260508042904 71 76 4.3 7.8 0.00 0.00 0.00 79 1011.7
20260508042802 71 71 4.3 7.8 0.00 0.00 0.00 79 1011.7
20260508042702 71 58 4.3 7.8 0.00 0.00 0.00 79 1011.7
20260508042603 71 86 2.6 7.8 0.00 0.00 0.00 79 1011.7
20260508042503 71 82 1.7 7.8 0.00 0.00 0.00 79 1011.8
20260508042402 71 82 3.5 7.8 0.00 0.00 0.00 79 1011.7
20260508042306 71 92 4.3 7.8 0.00 0.00 0.00 79 1011.7
20260508042203 71 94 4.3 7.8 0.00 0.00 0.00 79 1011.6
20260508042104 71 75 3.5 7.8 0.00 0.00 0.00 79 1011.6
20260508042003 71 87 3.5 7.8 0.00 0.00 0.00 79 1011.6
20260508041901 71 79 5.2 7.8 0.00 0.00 0.00 79 1011.6
20260508041802 71 68 5.2 7.8 0.00 0.00 0.00 79 1011.6
20260508041703 71 47 4.3 8.7 0.00 0.00 0.00 79 1011.6
20260508041603 71 32 2.6 8.7 0.00 0.00 0.00 79 1011.6
20260508041504 71 41 2.6 8.7 0.00 0.00 0.00 79 1011.5
20260508041403 71 52 4.3 10.4 0.00 0.00 0.00 79 1011.5
20260508041303 71 59 4.3 10.4 0.00 0.00 0.00 79 1011.4
20260508041202 71 55 4.3 10.4 0.00 0.00 0.00 79 1011.3
20260508041102 71 56 4.3 10.4 0.00 0.00 0.00 79 1011.3
20260508041002 71 48 5.2 10.4 0.00 0.00 0.00 79 1011.3
20260508040903 71 38 5.2 10.4 0.00 0.00 0.00 79 1011.3
20260508040802 71 73 5.2 10.4 0.00 0.00 0.00 79 1011.2
20260508040702 71 54 5.2 10.4 0.00 0.00 0.00 79 1011.4
20260508040602 71 82 6.1 10.4 0.00 0.00 0.00 79 1011.4
20260508040504 71 68 6.1 10.4 0.00 0.00 0.00 79 1011.4
20260508040402 71 73 4.3 8.7 0.00 0.00 0.00 79 1011.4
20260508040302 71 76 5.2 9.6 0.00 0.00 0.00 79 1011.4
20260508040203 71 58 5.2 9.6 0.00 0.00 0.00 79 1011.4
20260508040003 71 52 5.2 9.6 0.00 0.00 0.00 79 1011.4
20260508035903 71 78 5.2 9.6 0.00 0.00 0.00 79 1011.5
20260508035803 71 45 5.2 10.4 0.00 0.00 0.00 79 1011.4
20260508035702 71 47 5.2 10.4 0.00 0.00 0.00 79 1011.4
20260508035603 71 83 5.2 10.4 0.00 0.00 0.00 79 1011.4
20260508035504 71 83 5.2 10.4 0.00 0.00 0.00 79 1011.4
20260508035402 71 61 5.2 10.4 0.00 0.00 0.00 79 1011.4
20260508035306 71 71 5.2 10.4 0.00 0.00 0.00 79 1011.4
20260508035204 71 63 6.1 10.4 0.00 0.00 0.00 79 1011.4
20260508035103 71 55 6.1 10.4 0.00 0.00 0.00 79 1011.5
20260508035004 71 61 7.0 10.4 0.00 0.00 0.00 78 1011.5
20260508034901 71 51 6.1 10.4 0.00 0.00 0.00 79 1011.5
20260508034803 71 52 4.3 8.7 0.00 0.00 0.00 78 1011.6
20260508034702 71 59 4.3 8.7 0.00 0.00 0.00 78 1011.7
20260508034604 71 56 5.2 8.7 0.00 0.00 0.00 78 1011.7
20260508034504 71 41 5.2 8.7 0.00 0.00 0.00 78 1011.7
20260508034403 71 39 5.2 8.7 0.00 0.00 0.00 78 1012.0
20260508034303 71 55 5.2 8.7 0.00 0.00 0.00 78 1012.0
20260508034202 71 48 5.2 7.8 0.00 0.00 0.00 79 1012.0
20260508034102 71 59 5.2 7.8 0.00 0.00 0.00 79 1012.1
20260508034004 71 69 5.2 7.8 0.00 0.00 0.00 79 1012.2
20260508033903 71 68 4.3 7.8 0.00 0.00 0.00 79 1012.2
20260508033803 71 86 4.3 7.8 0.00 0.00 0.00 79 1012.1
20260508033701 71 82 4.3 7.8 0.00 0.00 0.00 79 1012.0
20260508033601 71 52 4.3 7.8 0.00 0.00 0.00 79 1012.0
20260508033503 71 62 4.3 7.8 0.00 0.00 0.00 79 1012.0
20260508033402 71 54 4.3 7.8 0.00 0.00 0.00 79 1012.0
20260508033303 71 62 4.3 6.1 0.00 0.00 0.00 79 1012.1
20260508033203 71 48 3.5 5.2 0.00 0.00 0.00 79 1012.1
20260508033104 71 62 3.5 5.2 0.00 0.00 0.00 79 1012.0
20260508033002 71 48 2.6 5.2 0.00 0.00 0.00 79 1012.2
20260508032901 71 42 2.6 5.2 0.00 0.00 0.00 79 1012.0
20260508032757 71 35 2.6 6.1 0.00 0.00 0.00 79 1012.0
20260508032657 71 41 1.7 6.1 0.00 0.00 0.00 79 1012.1
20260508032556 71 34 2.6 6.1 0.00 0.00 0.00 79 1012.0
20260508032454 71 56 2.6 6.1 0.00 0.00 0.00 78 1012.1
20260508032351 71 68 3.5 6.1 0.00 0.00 0.00 78 1012.1
20260508032250 71 42 3.5 6.1 0.00 0.00 0.00 78 1012.1
20260508032149 71 39 3.5 9.6 0.00 0.00 0.00 78 1012.1
20260508032049 71 65 4.3 9.6 0.00 0.00 0.00 78 1012.1
20260508031947 71 52 3.5 9.6 0.00 0.00 0.00 78 1012.1
20260508031846 71 21 3.5 9.6 0.00 0.00 0.00 78 1012.1
20260508031743 71 63 3.5 9.6 0.00 0.00 0.00 78 1012.1
20260508031643 71 28 3.5 9.6 0.00 0.00 0.00 78 1012.1
20260508031540 71 52 4.3 9.6 0.00 0.00 0.00 78 1012.1
20260508031440 71 49 4.3 9.6 0.00 0.00 0.00 78 1012.1
20260508031337 71 27 6.1 9.6 0.00 0.00 0.00 78 1012.1
20260508031236 71 30 5.2 9.6 0.00 0.00 0.00 78 1012.2
20260508031135 71 23 4.3 8.7 0.00 0.00 0.00 78 1012.1
20260508031031 71 10 5.2 8.7 0.00 0.00 0.00 77 1012.2
20260508030933 71 52 5.2 8.7 0.00 0.00 0.00 77 1012.2
20260508030831 71 0 4.3 8.7 0.00 0.00 0.00 77 1012.3
20260508030731 71 14 5.2 8.7 0.00 0.00 0.00 77 1012.3
20260508030632 71 30 5.2 8.7 0.00 0.00 0.00 77 1012.3
20260508030531 71 32 3.5 7.8 0.00 0.00 0.00 77 1012.3
20260508030431 71 0 3.5 7.8 0.00 0.00 0.00 77 1012.3
20260508030332 71 11 4.3 7.8 0.00 0.00 0.00 77 1012.3
20260508030231 71 14 6.1 7.8 0.00 0.00 0.00 77 1012.3
20260508030133 71 14 3.5 6.1 0.00 0.00 0.00 77 1012.3
20260508030028 71 14 3.5 6.1 0.00 0.00 0.00 77 1012.3
20260508025904 71 14 3.5 6.1 0.00 0.00 0.00 77 1012.4
20260508025802 71 14 3.5 5.2 0.00 0.00 0.00 77 1012.4
20260508025703 71 13 2.6 5.2 0.00 0.00 0.00 76 1012.4
20260508025603 71 0 3.5 5.2 0.00 0.00 0.00 76 1012.4
20260508025505 71 358 2.6 5.2 0.00 0.00 0.00 76 1012.5
20260508025404 71 358 2.6 6.1 0.00 0.00 0.00 76 1012.5
20260508025305 71 358 2.6 7.8 0.00 0.00 0.00 76 1012.4
20260508025203 71 358 2.6 7.8 0.00 0.00 0.00 76 1012.4
20260508025102 71 358 2.6 7.8 0.00 0.00 0.00 76 1012.3
20260508025004 71 23 2.6 7.8 0.00 0.00 0.00 76 1012.3
20260508024902 71 27 2.6 7.8 0.00 0.00 0.00 76 1012.3
20260508024803 71 13 2.6 7.8 0.00 0.00 0.00 76 1012.2
20260508024703 71 14 2.6 7.8 0.00 0.00 0.00 76 1012.1
20260508024603 71 20 3.5 7.8 0.00 0.00 0.00 76 1012.0
20260508024503 71 25 5.2 7.8 0.00 0.00 0.00 76 1012.0
20260508024402 71 42 5.2 7.8 0.00 0.00 0.00 76 1011.9
20260508024304 72 8 4.3 7.8 0.00 0.00 0.00 76 1011.9
20260508024202 72 47 3.5 6.1 0.00 0.00 0.00 76 1012.0
20260508024102 72 17 4.3 6.1 0.00 0.00 0.00 76 1012.0
20260508024004 72 20 4.3 6.1 0.00 0.00 0.00 76 1012.0
20260508023903 72 21 3.5 6.1 0.00 0.00 0.00 76 1012.0
20260508023801 72 38 3.5 6.1 0.00 0.00 0.00 76 1012.1
20260508023704 72 23 3.5 6.1 0.00 0.00 0.00 76 1012.1
20260508023602 72 20 4.3 6.1 0.00 0.00 0.00 76 1012.1
20260508023502 72 28 4.3 6.1 0.00 0.00 0.00 76 1012.0
20260508023402 72 27 2.6 6.1 0.00 0.00 0.00 76 1012.0
20260508023302 72 28 3.5 6.1 0.00 0.00 0.00 76 1011.9
20260508023203 72 14 4.3 6.1 0.00 0.00 0.00 76 1011.8
20260508023103 72 18 4.3 6.1 0.00 0.00 0.00 76 1011.8
20260508023003 72 20 3.5 6.1 0.00 0.00 0.00 76 1012.0
20260508022902 72 25 3.5 5.2 0.00 0.00 0.00 76 1011.9
20260508022803 72 10 4.3 5.2 0.00 0.00 0.00 76 1012.0
20260508022702 72 0 4.3 5.2 0.00 0.00 0.00 76 1011.9
20260508022603 72 37 3.5 5.2 0.00 0.00 0.00 76 1012.0